Time,TemperatureF,DewpointF,PressureIn,WindDirection,WindDirectionDegrees,WindSpeedMPH,WindSpeedGustMPH,Humidity,HourlyPrecipIn,Conditions,Clouds,dailyrainin,SolarRadiationWatts/m^2,SoftwareType,DateUTC
2013-06-21 00:00:00,76.5,68.0,29.83,SE,134,9.0,9.0,75,0.00,,,0.00,0,Wunderground v.1.15,2013-06-21 05:00:00,
2013-06-21 00:03:00,76.5,68.0,29.83,SE,140,8.0,9.0,75,0.00,,,0.00,0,Wunderground v.1.15,2013-06-21 05:03:00,
2013-06-21 00:05:00,76.4,67.9,29.83,SE,132,6.0,9.0,75,0.00,,,0.00,0,Wunderground v.1.15,2013-06-21 05:05:00,
2013-06-21 00:07:00,76.4,68.3,29.83,SE,126,6.0,9.0,76,0.00,,,0.00,0,Wunderground v.1.15,2013-06-21 05:07:00,
2013-06-21 00:09:00,76.4,68.3,29.83,SSE,150,8.0,9.0,76,0.00,,,0.00,0,Wunderground v.1.15,2013-06-21 05:09:00,
2013-06-21 00:12:00,76.3,68.2,29.83,SSE,148,11.0,11.0,76,0.00,,,0.00,0,Wunderground v.1.15,2013-06-21 05:12:00,
2013-06-21 00:13:00,76.4,68.3,29.83,SE,143,6.0,11.0,76,0.00,,,0.00,0,Wunderground v.1.15,2013-06-21 05:13:00,
2013-06-21 00:14:00,76.3,68.2,29.83,SE,143,6.0,11.0,76,0.00,,,0.00,0,Wunderground v.1.15,2013-06-21 05:14:00,
2013-06-21 00:17:00,76.2,68.1,29.83,SSE,155,11.0,11.0,76,0.00,,,0.00,0,Wunderground v.1.15,2013-06-21 05:17:00,
2013-06-21 00:20:00,76.2,68.1,29.82,South,172,10.0,10.0,76,0.00,,,0.00,0,Wunderground v.1.15,2013-06-21 05:20:00,
2013-06-21 00:21:00,76.1,68.0,29.82,SSE,147,8.0,10.0,76,0.00,,,0.00,0,Wunderground v.1.15,2013-06-21 05:21:00,
2013-06-21 00:22:00,76.1,68.0,29.82,SSE,153,7.0,10.0,76,0.00,,,0.00,0,Wunderground v.1.15,2013-06-21 05:22:00,
2013-06-21 00:23:00,76.1,68.0,29.82,SE,144,6.0,10.0,76,0.00,,,0.00,0,Wunderground v.1.15,2013-06-21 05:23:00,
2013-06-21 00:26:00,76.0,67.9,29.82,SSE,151,7.0,10.0,76,0.00,,,0.00,0,Wunderground v.1.15,2013-06-21 05:26:00,
2013-06-21 00:29:00,75.9,68.2,29.82,SSE,147,8.0,10.0,77,0.00,,,0.00,0,Wunderground v.1.15,2013-06-21 05:29:00,
2013-06-21 00:31:00,75.9,68.2,29.82,SSE,161,10.0,10.0,77,0.00,,,0.00,0,Wunderground v.1.15,2013-06-21 05:31:00,
2013-06-21 00:33:00,75.8,68.1,29.82,SE,143,4.0,10.0,77,0.00,,,0.00,0,Wunderground v.1.15,2013-06-21 05:33:00,
2013-06-21 00:34:00,75.8,68.1,29.82,SSE,157,7.0,10.0,77,0.00,,,0.00,0,Wunderground v.1.15,2013-06-21 05:34:00,
2013-06-21 00:36:00,75.7,68.0,29.82,SSE,160,11.0,11.0,77,0.00,,,0.00,0,Wunderground v.1.15,2013-06-21 05:36:00,
2013-06-21 00:39:00,75.7,68.0,29.82,SE,132,8.0,11.0,77,0.00,,,0.00,0,Wunderground v.1.15,2013-06-21 05:39:00,
2013-06-21 00:40:00,75.7,68.4,29.82,SE,133,9.0,9.0,78,0.00,,,0.00,0,Wunderground v.1.15,2013-06-21 05:40:00,
2013-06-21 00:41:00,75.6,68.3,29.82,SSE,148,5.0,9.0,78,0.00,,,0.00,0,Wunderground v.1.15,2013-06-21 05:41:00,
2013-06-21 00:45:00,75.5,68.2,29.82,SE,141,8.0,9.0,78,0.00,,,0.00,0,Wunderground v.1.15,2013-06-21 05:45:00,
2013-06-21 00:46:00,75.5,68.2,29.82,SE,133,6.0,9.0,78,0.00,,,0.00,0,Wunderground v.1.15,2013-06-21 05:46:00,
2013-06-21 00:47:00,75.5,68.2,29.82,SE,135,9.0,9.0,78,0.00,,,0.00,0,Wunderground v.1.15,2013-06-21 05:47:00,
2013-06-21 00:51:00,75.4,68.1,29.82,SSE,153,4.0,8.0,78,0.00,,,0.00,0,Wunderground v.1.15,2013-06-21 05:51:00,
2013-06-21 00:52:00,75.4,68.1,29.82,SE,136,5.0,8.0,78,0.00,,,0.00,0,Wunderground v.1.15,2013-06-21 05:52:00,
2013-06-21 00:53:00,75.4,68.1,29.81,SSE,153,5.0,8.0,78,0.00,,,0.00,0,Wunderground v.1.15,2013-06-21 05:53:00,
2013-06-21 00:55:00,75.4,68.1,29.82,SE,140,8.0,9.0,78,0.00,,,0.00,0,Wunderground v.1.15,2013-06-21 05:55:00,
2013-06-21 00:58:00,75.4,68.4,29.82,SSE,163,5.0,9.0,79,0.00,,,0.00,0,Wunderground v.1.15,2013-06-21 05:58:00,
2013-06-21 00:59:00,75.3,68.3,29.82,SE,142,9.0,9.0,79,0.00,,,0.00,0,Wunderground v.1.15,2013-06-21 05:59:00,
2013-06-21 01:00:00,75.3,68.3,29.82,SSE,148,7.0,7.0,79,0.00,,,0.00,0,Wunderground v.1.15,2013-06-21 06:00:00,
2013-06-21 01:01:00,75.3,68.3,29.82,SE,134,6.0,7.0,79,0.00,,,0.00,0,Wunderground v.1.15,2013-06-21 06:01:00,
2013-06-21 01:03:00,75.3,68.3,29.82,SE,136,9.0,9.0,79,0.00,,,0.00,0,Wunderground v.1.15,2013-06-21 06:03:00,
2013-06-21 01:06:00,75.3,68.3,29.82,SSE,166,8.0,9.0,79,0.00,,,0.00,0,Wunderground v.1.15,2013-06-21 06:06:00,
2013-06-21 01:08:00,75.3,68.3,29.82,SE,143,5.0,10.0,79,0.00,,,0.00,0,Wunderground v.1.15,2013-06-21 06:08:00,
2013-06-21 01:13:00,75.3,68.3,29.82,South,186,7.0,10.0,79,0.00,,,0.00,0,Wunderground v.1.15,2013-06-21 06:13:00,
2013-06-21 01:15:00,75.4,68.4,29.82,SSE,150,7.0,10.0,79,0.00,,,0.00,0,Wunderground v.1.15,2013-06-21 06:15:00,
2013-06-21 01:18:00,75.4,68.4,29.82,SE,145,10.0,10.0,79,0.00,,,0.00,0,Wunderground v.1.15,2013-06-21 06:18:00,
2013-06-21 01:21:00,75.3,68.3,29.82,SE,140,9.0,9.0,79,0.00,,,0.00,0,Wunderground v.1.15,2013-06-21 06:21:00,
2013-06-21 01:22:00,75.3,68.3,29.81,SE,136,7.0,9.0,79,0.00,,,0.00,0,Wunderground v.1.15,2013-06-21 06:22:00,
2013-06-21 01:25:00,75.3,68.3,29.81,ESE,123,7.0,10.0,79,0.00,,,0.00,0,Wunderground v.1.15,2013-06-21 06:25:00,
2013-06-21 01:28:00,75.3,68.3,29.81,SSE,160,9.0,10.0,79,0.00,,,0.00,0,Wunderground v.1.15,2013-06-21 06:28:00,
2013-06-21 01:29:00,75.3,68.3,29.81,SE,146,9.0,10.0,79,0.00,,,0.00,0,Wunderground v.1.15,2013-06-21 06:29:00,
2013-06-21 01:30:00,75.3,68.3,29.81,SSE,149,11.0,11.0,79,0.00,,,0.00,0,Wunderground v.1.15,2013-06-21 06:30:00,
2013-06-21 01:33:00,75.3,68.3,29.81,SSE,161,6.0,11.0,79,0.00,,,0.00,0,Wunderground v.1.15,2013-06-21 06:33:00,
2013-06-21 01:34:00,75.3,68.3,29.81,SSE,154,8.0,11.0,79,0.00,,,0.00,0,Wunderground v.1.15,2013-06-21 06:34:00,
2013-06-21 01:35:00,75.3,68.3,29.81,ESE,119,8.0,11.0,79,0.00,,,0.00,0,Wunderground v.1.15,2013-06-21 06:35:00,
2013-06-21 01:40:00,75.3,68.3,29.81,SSE,148,11.0,11.0,79,0.00,,,0.00,0,Wunderground v.1.15,2013-06-21 06:40:00,
2013-06-21 01:41:00,75.3,68.3,29.81,SSE,149,9.0,11.0,79,0.00,,,0.00,0,Wunderground v.1.15,2013-06-21 06:41:00,
2013-06-21 01:44:00,75.3,68.3,29.80,SSE,149,6.0,11.0,79,0.00,,,0.00,0,Wunderground v.1.15,2013-06-21 06:44:00,
2013-06-21 01:46:00,75.2,68.2,29.80,SSE,157,7.0,11.0,79,0.00,,,0.00,0,Wunderground v.1.15,2013-06-21 06:46:00,
2013-06-21 01:47:00,75.2,68.2,29.80,South,175,9.0,11.0,79,0.00,,,0.00,0,Wunderground v.1.15,2013-06-21 06:47:00,
2013-06-21 01:48:00,75.2,68.2,29.80,SSE,161,4.0,11.0,79,0.00,,,0.00,0,Wunderground v.1.15,2013-06-21 06:48:00,
2013-06-21 01:53:00,75.2,68.2,29.79,SSE,153,4.0,11.0,79,0.00,,,0.00,0,Wunderground v.1.15,2013-06-21 06:53:00,
2013-06-21 01:54:00,75.2,68.2,29.79,SSE,157,9.0,11.0,79,0.00,,,0.00,0,Wunderground v.1.15,2013-06-21 06:54:00,
2013-06-21 01:56:00,75.2,68.2,29.79,SSE,159,7.0,11.0,79,0.00,,,0.00,0,Wunderground v.1.15,2013-06-21 06:56:00,
2013-06-21 01:58:00,75.2,68.2,29.79,SE,134,6.0,11.0,79,0.00,,,0.00,0,Wunderground v.1.15,2013-06-21 06:58:00,
2013-06-21 02:00:00,75.2,68.2,29.79,SSE,157,9.0,9.0,79,0.00,,,0.00,0,Wunderground v.1.15,2013-06-21 07:00:00,
2013-06-21 02:01:00,75.2,68.2,29.79,SE,143,6.0,9.0,79,0.00,,,0.00,0,Wunderground v.1.15,2013-06-21 07:01:00,
2013-06-21 02:02:00,75.2,68.2,29.79,SE,144,7.0,9.0,79,0.00,,,0.00,0,Wunderground v.1.15,2013-06-21 07:02:00,
2013-06-21 02:03:00,75.2,68.2,29.79,SSE,160,11.0,11.0,79,0.00,,,0.00,0,Wunderground v.1.15,2013-06-21 07:03:00,
2013-06-21 02:07:00,75.2,68.2,29.79,SSE,153,6.0,13.0,79,0.00,,,0.00,0,Wunderground v.1.15,2013-06-21 07:07:00,
2013-06-21 02:09:00,75.2,68.6,29.79,SSE,159,8.0,13.0,80,0.00,,,0.00,0,Wunderground v.1.15,2013-06-21 07:09:00,
2013-06-21 02:10:00,75.2,68.6,29.80,South,171,6.0,8.0,80,0.00,,,0.00,0,Wunderground v.1.15,2013-06-21 07:10:00,
2013-06-21 02:12:00,75.2,68.6,29.79,SSE,156,10.0,12.0,80,0.00,,,0.00,0,Wunderground v.1.15,2013-06-21 07:12:00,
2013-06-21 02:13:00,75.2,68.6,29.79,SE,145,7.0,12.0,80,0.00,,,0.00,0,Wunderground v.1.15,2013-06-21 07:13:00,
2013-06-21 02:14:00,75.2,68.6,29.79,SSE,167,10.0,12.0,80,0.00,,,0.00,0,Wunderground v.1.15,2013-06-21 07:14:00,
2013-06-21 02:15:00,75.2,68.6,29.79,South,169,8.0,12.0,80,0.00,,,0.00,0,Wunderground v.1.15,2013-06-21 07:15:00,
2013-06-21 02:17:00,75.2,68.6,29.79,SSE,155,8.0,13.0,80,0.00,,,0.00,0,Wunderground v.1.15,2013-06-21 07:17:00,
2013-06-21 02:18:00,75.2,68.6,29.79,SSE,163,10.0,13.0,80,0.00,,,0.00,0,Wunderground v.1.15,2013-06-21 07:18:00,
2013-06-21 02:20:00,75.2,68.6,29.79,SSE,159,8.0,8.0,80,0.00,,,0.00,0,Wunderground v.1.15,2013-06-21 07:20:00,
2013-06-21 02:23:00,75.2,68.6,29.79,SSE,157,5.0,12.0,80,0.00,,,0.00,0,Wunderground v.1.15,2013-06-21 07:23:00,
2013-06-21 02:26:00,75.2,68.6,29.79,South,191,6.0,12.0,80,0.00,,,0.00,0,Wunderground v.1.15,2013-06-21 07:26:00,
2013-06-21 02:27:00,75.2,68.6,29.79,SSE,150,9.0,12.0,80,0.00,,,0.00,0,Wunderground v.1.15,2013-06-21 07:27:00,
2013-06-21 02:29:00,75.2,68.6,29.79,SSE,152,9.0,12.0,80,0.00,,,0.00,0,Wunderground v.1.15,2013-06-21 07:29:00,
2013-06-21 02:30:00,75.2,68.6,29.79,SSE,148,5.0,8.0,80,0.00,,,0.00,0,Wunderground v.1.15,2013-06-21 07:30:00,
2013-06-21 02:32:00,75.2,68.6,29.78,SSE,161,6.0,13.0,80,0.00,,,0.00,0,Wunderground v.1.15,2013-06-21 07:32:00,
2013-06-21 02:34:00,75.3,68.7,29.78,SSE,159,5.0,13.0,80,0.00,,,0.00,0,Wunderground v.1.15,2013-06-21 07:34:00,
2013-06-21 02:35:00,75.3,68.7,29.78,SSE,164,7.0,13.0,80,0.00,,,0.00,0,Wunderground v.1.15,2013-06-21 07:35:00,
2013-06-21 02:37:00,75.3,68.7,29.78,SSE,165,8.0,13.0,80,0.00,,,0.00,0,Wunderground v.1.15,2013-06-21 07:37:00,
2013-06-21 02:38:00,75.3,68.7,29.78,South,182,7.0,13.0,80,0.00,,,0.00,0,Wunderground v.1.15,2013-06-21 07:38:00,
2013-06-21 02:40:00,75.3,68.7,29.78,South,171,10.0,10.0,80,0.00,,,0.00,0,Wunderground v.1.15,2013-06-21 07:40:00,
2013-06-21 02:41:00,75.2,68.6,29.78,SSE,161,8.0,10.0,80,0.00,,,0.00,0,Wunderground v.1.15,2013-06-21 07:41:00,
2013-06-21 02:42:00,75.2,68.6,29.78,South,172,7.0,11.0,80,0.00,,,0.00,0,Wunderground v.1.15,2013-06-21 07:42:00,
2013-06-21 02:45:00,75.2,68.6,29.78,SSE,167,6.0,11.0,80,0.00,,,0.00,0,Wunderground v.1.15,2013-06-21 07:45:00,
2013-06-21 02:46:00,75.2,68.6,29.78,SSE,154,10.0,11.0,80,0.00,,,0.00,0,Wunderground v.1.15,2013-06-21 07:46:00,
2013-06-21 02:47:00,75.2,68.6,29.78,SSE,166,12.0,12.0,80,0.00,,,0.00,0,Wunderground v.1.15,2013-06-21 07:47:00,
2013-06-21 02:49:00,75.1,68.5,29.78,SE,134,12.0,12.0,80,0.00,,,0.00,0,Wunderground v.1.15,2013-06-21 07:49:00,
2013-06-21 02:50:00,75.1,68.5,29.78,SSE,166,8.0,10.0,80,0.00,,,0.00,0,Wunderground v.1.15,2013-06-21 07:50:00,
2013-06-21 02:52:00,75.1,68.5,29.77,SSW,199,9.0,10.0,80,0.00,,,0.00,0,Wunderground v.1.15,2013-06-21 07:52:00,
2013-06-21 02:54:00,75.1,68.5,29.77,SSE,159,7.0,11.0,80,0.00,,,0.00,0,Wunderground v.1.15,2013-06-21 07:54:00,
2013-06-21 02:56:00,75.1,68.5,29.78,SSE,155,5.0,13.0,80,0.00,,,0.00,0,Wunderground v.1.15,2013-06-21 07:56:00,
2013-06-21 02:57:00,75.1,68.5,29.78,SSE,161,5.0,13.0,80,0.00,,,0.00,0,Wunderground v.1.15,2013-06-21 07:57:00,
2013-06-21 02:59:00,75.1,68.5,29.77,SE,140,5.0,13.0,80,0.00,,,0.00,0,Wunderground v.1.15,2013-06-21 07:59:00,
2013-06-21 03:02:00,75.1,68.5,29.77,SSE,161,12.0,12.0,80,0.00,,,0.00,0,Wunderground v.1.15,2013-06-21 08:02:00,
2013-06-21 03:05:00,75.1,68.9,29.77,South,170,8.0,12.0,81,0.00,,,0.00,0,Wunderground v.1.15,2013-06-21 08:05:00,
2013-06-21 03:06:00,75.1,68.9,29.77,SSE,149,6.0,12.0,81,0.00,,,0.00,0,Wunderground v.1.15,2013-06-21 08:06:00,
2013-06-21 03:07:00,75.1,68.9,29.77,South,176,8.0,12.0,81,0.00,,,0.00,0,Wunderground v.1.15,2013-06-21 08:07:00,
2013-06-21 03:08:00,75.1,68.9,29.77,SSE,152,8.0,12.0,81,0.00,,,0.00,0,Wunderground v.1.15,2013-06-21 08:08:00,
2013-06-21 03:09:00,75.0,68.8,29.77,SSE,148,9.0,12.0,81,0.00,,,0.00,0,Wunderground v.1.15,2013-06-21 08:09:00,
2013-06-21 03:11:00,75.0,68.8,29.76,SE,142,7.0,8.0,81,0.00,,,0.00,0,Wunderground v.1.15,2013-06-21 08:11:00,
2013-06-21 03:13:00,75.0,68.8,29.76,South,175,6.0,9.0,81,0.00,,,0.00,0,Wunderground v.1.15,2013-06-21 08:13:00,
2013-06-21 03:14:00,74.9,68.7,29.76,SSE,165,11.0,11.0,81,0.00,,,0.00,0,Wunderground v.1.15,2013-06-21 08:14:00,
2013-06-21 03:15:00,74.9,68.7,29.76,SSE,164,7.0,11.0,81,0.00,,,0.00,0,Wunderground v.1.15,2013-06-21 08:15:00,
2013-06-21 03:18:00,74.9,68.7,29.75,SSE,154,5.0,11.0,81,0.00,,,0.00,0,Wunderground v.1.15,2013-06-21 08:18:00,
2013-06-21 03:20:00,74.8,68.9,29.75,SSE,165,8.0,8.0,82,0.00,,,0.00,0,Wunderground v.1.15,2013-06-21 08:20:00,
2013-06-21 03:21:00,74.8,68.9,29.75,South,180,7.0,11.0,82,0.00,,,0.00,0,Wunderground v.1.15,2013-06-21 08:21:00,
2013-06-21 03:23:00,74.8,68.9,29.75,SSE,149,6.0,11.0,82,0.00,,,0.00,0,Wunderground v.1.15,2013-06-21 08:23:00,
2013-06-21 03:24:00,74.8,68.9,29.75,SSE,156,9.0,11.0,82,0.00,,,0.00,0,Wunderground v.1.15,2013-06-21 08:24:00,
2013-06-21 03:25:00,74.8,68.9,29.75,SSE,153,10.0,11.0,82,0.00,,,0.00,0,Wunderground v.1.15,2013-06-21 08:25:00,
2013-06-21 03:27:00,74.8,68.9,29.75,SSE,162,5.0,11.0,82,0.00,,,0.00,0,Wunderground v.1.15,2013-06-21 08:27:00,
2013-06-21 03:28:00,74.8,68.9,29.75,SSE,157,8.0,11.0,82,0.00,,,0.00,0,Wunderground v.1.15,2013-06-21 08:28:00,
2013-06-21 03:29:00,74.8,68.9,29.75,SSE,168,2.0,11.0,82,0.00,,,0.00,0,Wunderground v.1.15,2013-06-21 08:29:00,
2013-06-21 03:30:00,74.8,68.9,29.75,SSE,166,9.0,9.0,82,0.00,,,0.00,0,Wunderground v.1.15,2013-06-21 08:30:00,
2013-06-21 03:31:00,74.8,68.9,29.75,SSE,160,7.0,9.0,82,0.00,,,0.00,0,Wunderground v.1.15,2013-06-21 08:31:00,
2013-06-21 03:32:00,74.8,68.9,29.75,SSE,158,5.0,9.0,82,0.00,,,0.00,0,Wunderground v.1.15,2013-06-21 08:32:00,
2013-06-21 03:34:00,74.8,68.9,29.75,SSE,161,6.0,9.0,82,0.00,,,0.00,0,Wunderground v.1.15,2013-06-21 08:34:00,
2013-06-21 03:35:00,74.8,68.9,29.75,SE,146,7.0,9.0,82,0.00,,,0.00,0,Wunderground v.1.15,2013-06-21 08:35:00,
2013-06-21 03:37:00,74.8,68.9,29.75,SSE,168,7.0,9.0,82,0.00,,,0.00,0,Wunderground v.1.15,2013-06-21 08:37:00,
2013-06-21 03:38:00,74.8,68.9,29.75,South,173,10.0,11.0,82,0.00,,,0.00,0,Wunderground v.1.15,2013-06-21 08:38:00,
2013-06-21 03:40:00,74.9,69.0,29.75,SSE,166,8.0,8.0,82,0.00,,,0.00,0,Wunderground v.1.15,2013-06-21 08:40:00,
2013-06-21 03:42:00,74.9,69.0,29.75,SSE,158,7.0,10.0,82,0.00,,,0.00,0,Wunderground v.1.15,2013-06-21 08:42:00,
2013-06-21 03:43:00,75.0,69.1,29.75,SSE,162,9.0,12.0,82,0.00,,,0.00,0,Wunderground v.1.15,2013-06-21 08:43:00,
2013-06-21 03:46:00,75.1,69.2,29.75,SSE,159,6.0,12.0,82,0.00,,,0.00,0,Wunderground v.1.15,2013-06-21 08:46:00,
2013-06-21 03:47:00,75.1,69.2,29.75,SSE,166,7.0,12.0,82,0.00,,,0.00,0,Wunderground v.1.15,2013-06-21 08:47:00,
2013-06-21 03:48:00,75.1,69.2,29.75,South,184,10.0,12.0,82,0.00,,,0.00,0,Wunderground v.1.15,2013-06-21 08:48:00,
2013-06-21 03:50:00,75.1,69.2,29.75,South,178,8.0,9.0,82,0.00,,,0.00,0,Wunderground v.1.15,2013-06-21 08:50:00,
2013-06-21 03:51:00,75.1,69.2,29.75,SSE,158,11.0,11.0,82,0.00,,,0.00,0,Wunderground v.1.15,2013-06-21 08:51:00,
2013-06-21 03:53:00,75.1,69.2,29.75,SSE,163,8.0,11.0,82,0.00,,,0.00,0,Wunderground v.1.15,2013-06-21 08:53:00,
2013-06-21 03:54:00,75.1,69.2,29.75,South,173,7.0,12.0,82,0.00,,,0.00,0,Wunderground v.1.15,2013-06-21 08:54:00,
2013-06-21 03:57:00,75.1,69.2,29.75,SSE,165,8.0,12.0,82,0.00,,,0.00,0,Wunderground v.1.15,2013-06-21 08:57:00,
2013-06-21 03:58:00,75.2,69.3,29.75,SSE,168,5.0,12.0,82,0.00,,,0.00,0,Wunderground v.1.15,2013-06-21 08:58:00,
2013-06-21 03:59:00,75.2,69.3,29.76,South,170,6.0,12.0,82,0.00,,,0.00,0,Wunderground v.1.15,2013-06-21 08:59:00,
2013-06-21 04:02:00,75.2,69.3,29.76,SSE,164,8.0,9.0,82,0.00,,,0.00,0,Wunderground v.1.15,2013-06-21 09:02:00,
2013-06-21 04:04:00,75.2,69.3,29.76,South,174,7.0,11.0,82,0.00,,,0.00,0,Wunderground v.1.15,2013-06-21 09:04:00,
2013-06-21 04:07:00,75.2,69.3,29.76,South,185,6.0,11.0,82,0.00,,,0.00,0,Wunderground v.1.15,2013-06-21 09:07:00,
2013-06-21 04:08:00,75.2,69.3,29.77,South,173,6.0,11.0,82,0.00,,,0.00,0,Wunderground v.1.15,2013-06-21 09:08:00,
2013-06-21 04:09:00,75.2,69.3,29.77,SSE,167,6.0,11.0,82,0.00,,,0.00,0,Wunderground v.1.15,2013-06-21 09:09:00,
2013-06-21 04:12:00,75.3,69.4,29.77,South,183,8.0,9.0,82,0.00,,,0.00,0,Wunderground v.1.15,2013-06-21 09:12:00,
2013-06-21 04:13:00,75.3,69.4,29.77,SSE,167,4.0,9.0,82,0.00,,,0.00,0,Wunderground v.1.15,2013-06-21 09:13:00,
2013-06-21 04:14:00,75.3,69.4,29.77,SSE,165,6.0,9.0,82,0.00,,,0.00,0,Wunderground v.1.15,2013-06-21 09:14:00,
2013-06-21 04:16:00,75.3,69.8,29.77,South,184,9.0,10.0,83,0.00,,,0.00,0,Wunderground v.1.15,2013-06-21 09:16:00,
2013-06-21 04:17:00,75.3,69.8,29.77,South,173,5.0,13.0,83,0.00,,,0.00,0,Wunderground v.1.15,2013-06-21 09:17:00,
2013-06-21 04:18:00,75.4,69.5,29.78,South,169,4.0,13.0,82,0.00,,,0.00,0,Wunderground v.1.15,2013-06-21 09:18:00,
2013-06-21 04:19:00,75.4,69.9,29.78,SSE,166,5.0,13.0,83,0.00,,,0.00,0,Wunderground v.1.15,2013-06-21 09:19:00,
2013-06-21 04:20:00,75.4,69.9,29.78,South,172,3.0,7.0,83,0.00,,,0.00,0,Wunderground v.1.15,2013-06-21 09:20:00,
2013-06-21 04:22:00,75.4,69.9,29.78,SSE,153,7.0,9.0,83,0.00,,,0.00,0,Wunderground v.1.15,2013-06-21 09:22:00,
2013-06-21 04:23:00,75.4,69.9,29.78,SSE,165,2.0,9.0,83,0.00,,,0.00,0,Wunderground v.1.15,2013-06-21 09:23:00,
2013-06-21 04:24:00,75.4,69.9,29.78,South,182,4.0,9.0,83,0.00,,,0.00,0,Wunderground v.1.15,2013-06-21 09:24:00,
2013-06-21 04:25:00,75.4,69.9,29.78,South,184,4.0,9.0,83,0.00,,,0.00,0,Wunderground v.1.15,2013-06-21 09:25:00,
2013-06-21 04:27:00,75.5,70.0,29.78,South,170,10.0,11.0,83,0.00,,,0.00,0,Wunderground v.1.15,2013-06-21 09:27:00,
2013-06-21 04:29:00,75.5,70.0,29.78,SSE,165,6.0,11.0,83,0.00,,,0.00,0,Wunderground v.1.15,2013-06-21 09:29:00,
2013-06-21 04:30:00,75.5,70.0,29.78,South,171,5.0,6.0,83,0.00,,,0.00,0,Wunderground v.1.15,2013-06-21 09:30:00,
2013-06-21 04:31:00,75.5,70.0,29.78,South,176,6.0,8.0,83,0.00,,,0.00,0,Wunderground v.1.15,2013-06-21 09:31:00,
2013-06-21 04:34:00,75.6,70.1,29.78,SSE,167,3.0,10.0,83,0.00,,,0.00,0,Wunderground v.1.15,2013-06-21 09:34:00,
2013-06-21 04:35:00,75.7,70.2,29.79,SSE,161,8.0,10.0,83,0.00,,,0.00,0,Wunderground v.1.15,2013-06-21 09:35:00,
2013-06-21 04:36:00,75.7,69.8,29.79,South,187,2.0,10.0,82,0.00,,,0.00,0,Wunderground v.1.15,2013-06-21 09:36:00,
2013-06-21 04:38:00,75.7,69.8,29.79,SSE,157,5.0,10.0,82,0.00,,,0.00,0,Wunderground v.1.15,2013-06-21 09:38:00,
2013-06-21 04:39:00,75.7,70.2,29.79,South,175,3.0,10.0,83,0.00,,,0.00,0,Wunderground v.1.15,2013-06-21 09:39:00,
2013-06-21 04:41:00,75.7,70.2,29.79,SSE,166,5.0,6.0,83,0.00,,,0.00,0,Wunderground v.1.15,2013-06-21 09:41:00,
2013-06-21 04:43:00,75.7,70.2,29.79,South,177,7.0,7.0,83,0.00,,,0.00,0,Wunderground v.1.15,2013-06-21 09:43:00,
2013-06-21 04:44:00,75.7,70.2,29.79,South,176,3.0,8.0,83,0.00,,,0.00,0,Wunderground v.1.15,2013-06-21 09:44:00,
2013-06-21 04:48:00,75.7,70.2,29.79,South,169,8.0,10.0,83,0.00,,,0.00,0,Wunderground v.1.15,2013-06-21 09:48:00,
2013-06-21 04:49:00,75.7,70.2,29.79,South,184,6.0,11.0,83,0.00,,,0.00,0,Wunderground v.1.15,2013-06-21 09:49:00,
2013-06-21 04:51:00,75.8,70.3,29.79,South,180,6.0,6.0,83,0.00,,,0.00,0,Wunderground v.1.15,2013-06-21 09:51:00,
2013-06-21 04:53:00,75.7,70.2,29.79,SSE,166,8.0,9.0,83,0.00,,,0.00,0,Wunderground v.1.15,2013-06-21 09:53:00,
2013-06-21 04:54:00,75.7,70.2,29.79,SSE,161,5.0,9.0,83,0.00,,,0.00,0,Wunderground v.1.15,2013-06-21 09:54:00,
2013-06-21 04:55:00,75.7,70.2,29.79,South,181,5.0,9.0,83,0.00,,,0.00,0,Wunderground v.1.15,2013-06-21 09:55:00,
2013-06-21 04:57:00,75.6,70.1,29.79,South,172,9.0,9.0,83,0.00,,,0.00,0,Wunderground v.1.15,2013-06-21 09:57:00,
2013-06-21 05:00:00,75.5,70.0,29.79,South,178,5.0,7.0,83,0.00,,,0.00,0,Wunderground v.1.15,2013-06-21 10:00:00,
2013-06-21 05:01:00,75.5,70.0,29.79,South,178,3.0,7.0,83,0.00,,,0.00,0,Wunderground v.1.15,2013-06-21 10:01:00,
2013-06-21 05:02:00,75.4,69.9,29.79,South,184,8.0,8.0,83,0.00,,,0.00,0,Wunderground v.1.15,2013-06-21 10:02:00,
2013-06-21 05:03:00,75.4,69.9,29.79,South,180,9.0,9.0,83,0.00,,,0.00,0,Wunderground v.1.15,2013-06-21 10:03:00,
2013-06-21 05:05:00,75.4,69.9,29.79,SSE,167,7.0,10.0,83,0.00,,,0.00,0,Wunderground v.1.15,2013-06-21 10:05:00,
2013-06-21 05:06:00,75.3,69.8,29.79,South,173,4.0,10.0,83,0.00,,,0.00,0,Wunderground v.1.15,2013-06-21 10:06:00,
2013-06-21 05:07:00,75.4,69.9,29.79,South,177,8.0,10.0,83,0.00,,,0.00,0,Wunderground v.1.15,2013-06-21 10:07:00,
2013-06-21 05:09:00,75.3,69.8,29.79,SSE,162,7.0,10.0,83,0.00,,,0.00,0,Wunderground v.1.15,2013-06-21 10:09:00,
2013-06-21 05:12:00,75.3,69.8,29.79,South,187,6.0,6.0,83,0.00,,,0.00,0,Wunderground v.1.15,2013-06-21 10:12:00,
2013-06-21 05:14:00,75.2,70.0,29.79,South,176,3.0,6.0,84,0.00,,,0.00,0,Wunderground v.1.15,2013-06-21 10:14:00,
2013-06-21 05:15:00,75.2,70.0,29.79,South,171,4.0,7.0,84,0.00,,,0.00,0,Wunderground v.1.15,2013-06-21 10:15:00,
2013-06-21 05:17:00,75.2,70.0,29.79,South,173,5.0,8.0,84,0.00,,,0.00,0,Wunderground v.1.15,2013-06-21 10:17:00,
2013-06-21 05:18:00,75.1,69.9,29.79,SSE,165,3.0,8.0,84,0.00,,,0.00,0,Wunderground v.1.15,2013-06-21 10:18:00,
2013-06-21 05:19:00,75.1,69.9,29.79,SSE,161,4.0,8.0,84,0.00,,,0.00,0,Wunderground v.1.15,2013-06-21 10:19:00,
2013-06-21 05:20:00,75.1,69.9,29.79,South,172,7.0,7.0,84,0.00,,,0.00,0,Wunderground v.1.15,2013-06-21 10:20:00,
2013-06-21 05:24:00,75.0,69.8,29.79,SSE,165,3.0,7.0,84,0.00,,,0.00,0,Wunderground v.1.15,2013-06-21 10:24:00,
2013-06-21 05:25:00,75.0,69.8,29.79,SSE,162,6.0,9.0,84,0.00,,,0.00,0,Wunderground v.1.15,2013-06-21 10:25:00,
2013-06-21 05:26:00,75.0,70.2,29.79,SSE,159,4.0,9.0,85,0.00,,,0.00,0,Wunderground v.1.15,2013-06-21 10:26:00,
2013-06-21 05:30:00,74.9,70.1,29.79,South,181,6.0,12.0,85,0.00,,,0.00,0,Wunderground v.1.15,2013-06-21 10:30:00,
2013-06-21 05:31:00,74.9,70.1,29.79,SSE,159,5.0,12.0,85,0.00,,,0.00,0,Wunderground v.1.15,2013-06-21 10:31:00,
2013-06-21 05:33:00,74.9,70.1,29.79,SSE,159,6.0,12.0,85,0.00,,,0.00,0,Wunderground v.1.15,2013-06-21 10:33:00,
2013-06-21 05:36:00,74.9,70.1,29.80,SSE,159,5.0,12.0,85,0.00,,,0.00,0,Wunderground v.1.15,2013-06-21 10:36:00,
2013-06-21 05:37:00,74.9,70.1,29.79,SSW,200,7.0,12.0,85,0.00,,,0.00,0,Wunderground v.1.15,2013-06-21 10:37:00,
2013-06-21 05:39:00,74.9,70.1,29.79,SSE,161,7.0,12.0,85,0.00,,,0.00,0,Wunderground v.1.15,2013-06-21 10:39:00,
2013-06-21 05:40:00,74.9,70.1,29.79,SSE,165,6.0,6.0,85,0.00,,,0.00,0,Wunderground v.1.15,2013-06-21 10:40:00,
2013-06-21 05:41:00,74.9,70.1,29.79,South,169,6.0,8.0,85,0.00,,,0.00,0,Wunderground v.1.15,2013-06-21 10:41:00,
2013-06-21 05:42:00,74.9,70.1,29.79,South,170,6.0,8.0,85,0.00,,,0.00,0,Wunderground v.1.15,2013-06-21 10:42:00,
2013-06-21 05:44:00,74.8,70.0,29.79,SSE,165,7.0,8.0,85,0.00,,,0.00,0,Wunderground v.1.15,2013-06-21 10:44:00,
2013-06-21 05:45:00,74.8,70.0,29.79,SSE,160,6.0,8.0,85,0.00,,,0.00,0,Wunderground v.1.15,2013-06-21 10:45:00,
2013-06-21 05:46:00,74.8,70.0,29.79,SSE,162,5.0,8.0,85,0.00,,,0.00,0,Wunderground v.1.15,2013-06-21 10:46:00,
2013-06-21 05:47:00,74.7,69.9,29.79,South,170,5.0,10.0,85,0.00,,,0.00,0,Wunderground v.1.15,2013-06-21 10:47:00,
2013-06-21 05:48:00,74.7,69.9,29.79,SSE,161,3.0,10.0,85,0.00,,,0.00,0,Wunderground v.1.15,2013-06-21 10:48:00,
2013-06-21 05:50:00,74.7,69.9,29.79,SSE,168,3.0,5.0,85,0.00,,,0.00,0,Wunderground v.1.15,2013-06-21 10:50:00,
2013-06-21 05:51:00,74.6,69.8,29.79,South,178,2.0,5.0,85,0.00,,,0.00,5,Wunderground v.1.15,2013-06-21 10:51:00,
2013-06-21 05:52:00,74.6,69.8,29.79,SSE,149,9.0,9.0,85,0.00,,,0.00,5,Wunderground v.1.15,2013-06-21 10:52:00,
2013-06-21 05:53:00,74.6,69.8,29.79,SSE,158,7.0,9.0,85,0.00,,,0.00,7,Wunderground v.1.15,2013-06-21 10:53:00,
2013-06-21 05:55:00,74.6,69.8,29.79,SSE,165,4.0,9.0,85,0.00,,,0.00,7,Wunderground v.1.15,2013-06-21 10:55:00,
2013-06-21 05:57:00,74.5,70.0,29.79,SSE,167,4.0,9.0,86,0.00,,,0.00,11,Wunderground v.1.15,2013-06-21 10:57:00,
2013-06-21 05:58:00,74.5,70.0,29.79,SSE,166,6.0,9.0,86,0.00,,,0.00,11,Wunderground v.1.15,2013-06-21 10:58:00,
2013-06-21 05:59:00,74.4,69.9,29.79,South,171,7.0,9.0,86,0.00,,,0.00,11,Wunderground v.1.15,2013-06-21 10:59:00,
2013-06-21 06:01:00,74.4,69.9,29.80,SSE,160,5.0,7.0,86,0.00,,,0.00,12,Wunderground v.1.15,2013-06-21 11:01:00,
2013-06-21 06:03:00,74.4,69.9,29.79,SSE,161,5.0,8.0,86,0.00,,,0.00,16,Wunderground v.1.15,2013-06-21 11:03:00,
2013-06-21 06:04:00,74.4,69.9,29.79,SSE,162,3.0,8.0,86,0.00,,,0.00,16,Wunderground v.1.15,2013-06-21 11:04:00,
2013-06-21 06:06:00,74.3,69.8,29.79,SSE,160,6.0,8.0,86,0.00,,,0.00,18,Wunderground v.1.15,2013-06-21 11:06:00,
2013-06-21 06:07:00,74.3,69.8,29.79,South,171,6.0,8.0,86,0.00,,,0.00,19,Wunderground v.1.15,2013-06-21 11:07:00,
2013-06-21 06:09:00,74.3,69.8,29.79,SSE,163,5.0,12.0,86,0.00,,,0.00,21,Wunderground v.1.15,2013-06-21 11:09:00,
2013-06-21 06:11:00,74.3,69.8,29.79,SSE,159,6.0,8.0,86,0.00,,,0.00,23,Wunderground v.1.15,2013-06-21 11:11:00,
2013-06-21 06:12:00,74.3,69.8,29.79,SSE,165,6.0,9.0,86,0.00,,,0.00,25,Wunderground v.1.15,2013-06-21 11:12:00,
2013-06-21 06:13:00,74.3,69.8,29.79,South,171,6.0,9.0,86,0.00,,,0.00,25,Wunderground v.1.15,2013-06-21 11:13:00,
2013-06-21 06:14:00,74.3,69.8,29.79,South,175,8.0,9.0,86,0.00,,,0.00,26,Wunderground v.1.15,2013-06-21 11:14:00,
2013-06-21 06:16:00,74.4,69.9,29.79,SSE,159,7.0,9.0,86,0.00,,,0.00,28,Wunderground v.1.15,2013-06-21 11:16:00,
2013-06-21 06:18:00,74.4,69.9,29.79,SSE,160,7.0,11.0,86,0.00,,,0.00,30,Wunderground v.1.15,2013-06-21 11:18:00,
2013-06-21 06:19:00,74.4,69.9,29.79,SSE,162,4.0,11.0,86,0.00,,,0.00,30,Wunderground v.1.15,2013-06-21 11:19:00,
2013-06-21 06:21:00,74.5,70.0,29.79,South,170,6.0,9.0,86,0.00,,,0.00,32,Wunderground v.1.15,2013-06-21 11:21:00,
2013-06-21 06:23:00,74.5,70.0,29.79,SSE,160,8.0,11.0,86,0.00,,,0.00,33,Wunderground v.1.15,2013-06-21 11:23:00,
2013-06-21 06:24:00,74.5,70.0,29.79,South,169,6.0,11.0,86,0.00,,,0.00,35,Wunderground v.1.15,2013-06-21 11:24:00,
2013-06-21 06:26:00,74.5,70.0,29.80,SSE,160,8.0,11.0,86,0.00,,,0.00,35,Wunderground v.1.15,2013-06-21 11:26:00,
2013-06-21 06:27:00,74.5,70.0,29.79,SSE,167,9.0,11.0,86,0.00,,,0.00,37,Wunderground v.1.15,2013-06-21 11:27:00,
2013-06-21 06:28:00,74.5,70.0,29.79,SSE,162,4.0,11.0,86,0.00,,,0.00,37,Wunderground v.1.15,2013-06-21 11:28:00,
2013-06-21 06:31:00,74.6,70.1,29.79,South,173,8.0,8.0,86,0.00,,,0.00,39,Wunderground v.1.15,2013-06-21 11:31:00,
2013-06-21 06:32:00,74.6,70.1,29.80,South,180,6.0,10.0,86,0.00,,,0.00,40,Wunderground v.1.15,2013-06-21 11:32:00,
2013-06-21 06:33:00,74.6,70.1,29.80,SSE,163,7.0,10.0,86,0.00,,,0.00,40,Wunderground v.1.15,2013-06-21 11:33:00,
2013-06-21 06:36:00,74.6,70.1,29.80,SSE,156,8.0,10.0,86,0.00,,,0.00,44,Wunderground v.1.15,2013-06-21 11:36:00,
2013-06-21 06:39:00,74.7,70.2,29.80,South,171,3.0,10.0,86,0.00,,,0.00,44,Wunderground v.1.15,2013-06-21 11:39:00,
2013-06-21 06:40:00,74.7,70.6,29.80,South,186,9.0,9.0,87,0.00,,,0.00,44,Wunderground v.1.15,2013-06-21 11:40:00,
2013-06-21 06:42:00,74.7,70.6,29.80,South,178,5.0,9.0,87,0.00,,,0.00,44,Wunderground v.1.15,2013-06-21 11:42:00,
2013-06-21 06:44:00,74.8,70.3,29.79,SSE,161,9.0,11.0,86,0.00,,,0.00,47,Wunderground v.1.15,2013-06-21 11:44:00,
2013-06-21 06:45:00,74.8,70.3,29.79,SSE,155,7.0,11.0,86,0.00,,,0.00,49,Wunderground v.1.15,2013-06-21 11:45:00,
2013-06-21 06:46:00,74.8,70.3,29.79,South,183,6.0,11.0,86,0.00,,,0.00,51,Wunderground v.1.15,2013-06-21 11:46:00,
2013-06-21 06:47:00,74.8,70.3,29.79,SSE,160,8.0,11.0,86,0.00,,,0.00,53,Wunderground v.1.15,2013-06-21 11:47:00,
2013-06-21 06:49:00,74.8,70.3,29.79,SSE,147,8.0,11.0,86,0.00,,,0.00,60,Wunderground v.1.15,2013-06-21 11:49:00,
2013-06-21 06:50:00,74.8,70.3,29.79,South,173,5.0,8.0,86,0.00,,,0.00,62,Wunderground v.1.15,2013-06-21 11:50:00,
2013-06-21 06:51:00,74.8,70.3,29.79,SSE,166,8.0,9.0,86,0.00,,,0.00,63,Wunderground v.1.15,2013-06-21 11:51:00,
2013-06-21 06:52:00,74.9,70.4,29.79,SSE,156,6.0,10.0,86,0.00,,,0.00,65,Wunderground v.1.15,2013-06-21 11:52:00,
2013-06-21 06:54:00,74.9,70.4,29.79,SSE,163,10.0,10.0,86,0.00,,,0.00,70,Wunderground v.1.15,2013-06-21 11:54:00,
2013-06-21 06:56:00,74.9,70.4,29.79,South,171,6.0,10.0,86,0.00,,,0.00,74,Wunderground v.1.15,2013-06-21 11:56:00,
2013-06-21 06:58:00,74.9,70.4,29.78,SSE,168,9.0,10.0,86,0.00,,,0.00,81,Wunderground v.1.15,2013-06-21 11:58:00,
2013-06-21 06:59:00,74.9,70.4,29.78,South,175,6.0,10.0,86,0.00,,,0.00,83,Wunderground v.1.15,2013-06-21 11:59:00,
2013-06-21 07:00:00,74.9,70.4,29.78,South,171,3.0,9.0,86,0.00,,,0.00,84,Wunderground v.1.15,2013-06-21 12:00:00,
2013-06-21 07:02:00,75.0,70.5,29.78,South,171,4.0,9.0,86,0.00,,,0.00,88,Wunderground v.1.15,2013-06-21 12:02:00,
2013-06-21 07:04:00,75.0,70.5,29.78,South,174,6.0,13.0,86,0.00,,,0.00,93,Wunderground v.1.15,2013-06-21 12:04:00,
2013-06-21 07:05:00,75.0,70.5,29.78,SSE,152,7.0,13.0,86,0.00,,,0.00,95,Wunderground v.1.15,2013-06-21 12:05:00,
2013-06-21 07:09:00,75.1,70.6,29.79,South,169,8.0,13.0,86,0.00,,,0.00,100,Wunderground v.1.15,2013-06-21 12:09:00,
2013-06-21 07:10:00,75.2,70.7,29.79,SSW,194,8.0,8.0,86,0.00,,,0.00,104,Wunderground v.1.15,2013-06-21 12:10:00,
2013-06-21 07:13:00,75.2,70.7,29.79,South,179,6.0,12.0,86,0.00,,,0.00,109,Wunderground v.1.15,2013-06-21 12:13:00,
2013-06-21 07:14:00,75.2,70.7,29.78,South,180,9.0,12.0,86,0.00,,,0.00,111,Wunderground v.1.15,2013-06-21 12:14:00,
2013-06-21 07:16:00,75.3,70.8,29.78,SSE,159,8.0,12.0,86,0.00,,,0.00,111,Wunderground v.1.15,2013-06-21 12:16:00,
2013-06-21 07:20:00,75.4,70.9,29.78,SSE,161,9.0,9.0,86,0.00,,,0.00,118,Wunderground v.1.15,2013-06-21 12:20:00,
2013-06-21 07:22:00,75.5,71.0,29.78,SSE,153,6.0,9.0,86,0.00,,,0.00,123,Wunderground v.1.15,2013-06-21 12:22:00,
2013-06-21 07:24:00,75.5,71.0,29.78,SSE,156,7.0,9.0,86,0.00,,,0.00,125,Wunderground v.1.15,2013-06-21 12:24:00,
2013-06-21 07:26:00,75.6,71.1,29.78,SSW,196,8.0,11.0,86,0.00,,,0.00,128,Wunderground v.1.15,2013-06-21 12:26:00,
2013-06-21 07:29:00,75.7,70.9,29.78,South,188,7.0,12.0,85,0.00,,,0.00,135,Wunderground v.1.15,2013-06-21 12:29:00,
2013-06-21 07:30:00,75.7,71.2,29.78,South,184,10.0,10.0,86,0.00,,,0.00,135,Wunderground v.1.15,2013-06-21 12:30:00,
2013-06-21 07:31:00,75.8,71.0,29.78,South,187,10.0,10.0,85,0.00,,,0.00,141,Wunderground v.1.15,2013-06-21 12:31:00,
2013-06-21 07:34:00,75.9,71.1,29.78,SSE,152,5.0,12.0,85,0.00,,,0.00,148,Wunderground v.1.15,2013-06-21 12:34:00,
2013-06-21 07:35:00,75.9,71.1,29.78,SSW,207,7.0,12.0,85,0.00,,,0.00,148,Wunderground v.1.15,2013-06-21 12:35:00,
2013-06-21 07:37:00,76.0,71.2,29.78,South,179,5.0,12.0,85,0.00,,,0.00,151,Wunderground v.1.15,2013-06-21 12:37:00,
2013-06-21 07:38:00,76.0,71.2,29.78,SSW,194,13.0,13.0,85,0.00,,,0.00,153,Wunderground v.1.15,2013-06-21 12:38:00,
2013-06-21 07:40:00,76.1,71.3,29.78,SSW,193,11.0,12.0,85,0.00,,,0.00,156,Wunderground v.1.15,2013-06-21 12:40:00,
2013-06-21 07:42:00,76.1,71.3,29.78,SSW,192,8.0,12.0,85,0.00,,,0.00,160,Wunderground v.1.15,2013-06-21 12:42:00,
2013-06-21 07:43:00,76.1,71.3,29.78,South,190,9.0,12.0,85,0.00,,,0.00,163,Wunderground v.1.15,2013-06-21 12:43:00,
2013-06-21 07:45:00,76.2,71.4,29.78,South,186,11.0,12.0,85,0.00,,,0.00,171,Wunderground v.1.15,2013-06-21 12:45:00,
2013-06-21 07:46:00,76.2,71.4,29.78,SSW,201,12.0,12.0,85,0.00,,,0.00,172,Wunderground v.1.15,2013-06-21 12:46:00,
2013-06-21 07:47:00,76.3,71.5,29.77,South,175,8.0,13.0,85,0.00,,,0.00,176,Wunderground v.1.15,2013-06-21 12:47:00,
2013-06-21 07:49:00,76.3,71.5,29.78,South,188,5.0,13.0,85,0.00,,,0.00,176,Wunderground v.1.15,2013-06-21 12:49:00,
2013-06-21 07:50:00,76.3,71.5,29.77,South,190,12.0,12.0,85,0.00,,,0.00,178,Wunderground v.1.15,2013-06-21 12:50:00,
2013-06-21 07:52:00,76.4,71.6,29.77,SSW,201,8.0,12.0,85,0.00,,,0.00,176,Wunderground v.1.15,2013-06-21 12:52:00,
2013-06-21 07:53:00,76.4,71.2,29.77,South,177,8.0,15.0,84,0.00,,,0.00,181,Wunderground v.1.15,2013-06-21 12:53:00,
2013-06-21 07:55:00,76.4,71.2,29.77,South,183,12.0,15.0,84,0.00,,,0.00,183,Wunderground v.1.15,2013-06-21 12:55:00,
2013-06-21 07:56:00,76.5,71.3,29.77,SSE,168,6.0,15.0,84,0.00,,,0.00,186,Wunderground v.1.15,2013-06-21 12:56:00,
2013-06-21 07:57:00,76.5,71.7,29.77,SSW,192,10.0,15.0,85,0.00,,,0.00,188,Wunderground v.1.15,2013-06-21 12:57:00,
2013-06-21 07:58:00,76.5,71.3,29.77,South,174,10.0,15.0,84,0.00,,,0.00,193,Wunderground v.1.15,2013-06-21 12:58:00,
2013-06-21 08:03:00,76.7,71.5,29.77,SSW,195,8.0,12.0,84,0.00,,,0.00,211,Wunderground v.1.15,2013-06-21 13:03:00,
2013-06-21 08:05:00,76.8,71.6,29.77,South,177,6.0,12.0,84,0.00,,,0.00,216,Wunderground v.1.15,2013-06-21 13:05:00,
2013-06-21 08:08:00,76.9,71.7,29.77,South,182,8.0,12.0,84,0.00,,,0.00,213,Wunderground v.1.15,2013-06-21 13:08:00,
2013-06-21 08:09:00,77.0,71.8,29.77,South,171,5.0,12.0,84,0.00,,,0.00,214,Wunderground v.1.15,2013-06-21 13:09:00,
2013-06-21 08:10:00,77.0,71.8,29.77,South,180,8.0,8.0,84,0.00,,,0.00,216,Wunderground v.1.15,2013-06-21 13:10:00,
2013-06-21 08:12:00,77.1,71.9,29.77,SW,221,14.0,15.0,84,0.00,,,0.00,223,Wunderground v.1.15,2013-06-21 13:12:00,
2013-06-21 08:13:00,77.3,71.7,29.77,South,169,7.0,15.0,83,0.00,,,0.00,239,Wunderground v.1.15,2013-06-21 13:13:00,
2013-06-21 08:14:00,77.3,71.7,29.77,SSE,165,7.0,15.0,83,0.00,,,0.00,241,Wunderground v.1.15,2013-06-21 13:14:00,
2013-06-21 08:16:00,77.4,71.8,29.77,South,187,11.0,15.0,83,0.00,,,0.00,241,Wunderground v.1.15,2013-06-21 13:16:00,
2013-06-21 08:17:00,77.5,71.9,29.77,South,175,11.0,15.0,83,0.00,,,0.00,244,Wunderground v.1.15,2013-06-21 13:17:00,
2013-06-21 08:18:00,77.5,71.9,29.77,South,179,8.0,15.0,83,0.00,,,0.00,246,Wunderground v.1.15,2013-06-21 13:18:00,
2013-06-21 08:19:00,77.6,72.0,29.77,South,171,10.0,15.0,83,0.00,,,0.00,248,Wunderground v.1.15,2013-06-21 13:19:00,
2013-06-21 08:20:00,77.6,72.0,29.77,South,186,8.0,9.0,83,0.00,,,0.00,255,Wunderground v.1.15,2013-06-21 13:20:00,
2013-06-21 08:21:00,77.7,72.1,29.77,South,169,13.0,13.0,83,0.00,,,0.00,272,Wunderground v.1.15,2013-06-21 13:21:00,
2013-06-21 08:23:00,77.8,72.2,29.77,South,170,8.0,13.0,83,0.00,,,0.00,272,Wunderground v.1.15,2013-06-21 13:23:00,
2013-06-21 08:24:00,77.8,72.2,29.77,SSW,195,6.0,13.0,83,0.00,,,0.00,271,Wunderground v.1.15,2013-06-21 13:24:00,
2013-06-21 08:25:00,78.0,72.1,29.78,South,171,10.0,13.0,82,0.00,,,0.00,278,Wunderground v.1.15,2013-06-21 13:25:00,
2013-06-21 08:27:00,78.1,72.2,29.78,SSW,209,11.0,13.0,82,0.00,,,0.00,290,Wunderground v.1.15,2013-06-21 13:27:00,
2013-06-21 08:28:00,78.2,72.3,29.78,SSW,193,11.0,13.0,82,0.00,,,0.00,287,Wunderground v.1.15,2013-06-21 13:28:00,
2013-06-21 08:30:00,78.3,72.0,29.78,SSE,163,10.0,10.0,81,0.00,,,0.00,294,Wunderground v.1.15,2013-06-21 13:30:00,
2013-06-21 08:33:00,78.5,72.2,29.78,SSW,199,7.0,13.0,81,0.00,,,0.00,299,Wunderground v.1.15,2013-06-21 13:33:00,
2013-06-21 08:34:00,78.6,72.3,29.78,South,182,8.0,13.0,81,0.00,,,0.00,299,Wunderground v.1.15,2013-06-21 13:34:00,
2013-06-21 08:35:00,78.6,72.3,29.78,South,180,12.0,13.0,81,0.00,,,0.00,287,Wunderground v.1.15,2013-06-21 13:35:00,
2013-06-21 08:36:00,78.6,72.3,29.78,South,170,11.0,13.0,81,0.00,,,0.00,288,Wunderground v.1.15,2013-06-21 13:36:00,
2013-06-21 08:39:00,78.7,72.4,29.78,SSW,201,7.0,15.0,81,0.00,,,0.00,295,Wunderground v.1.15,2013-06-21 13:39:00,
2013-06-21 08:40:00,78.7,72.4,29.78,South,190,7.0,9.0,81,0.00,,,0.00,311,Wunderground v.1.15,2013-06-21 13:40:00,
2013-06-21 08:41:00,78.8,72.5,29.78,South,191,9.0,9.0,81,0.00,,,0.00,311,Wunderground v.1.15,2013-06-21 13:41:00,
2013-06-21 08:44:00,79.0,72.3,29.78,SSW,202,10.0,13.0,80,0.00,,,0.00,316,Wunderground v.1.15,2013-06-21 13:44:00,
2013-06-21 08:45:00,79.0,72.3,29.78,SSW,201,10.0,14.0,80,0.00,,,0.00,316,Wunderground v.1.15,2013-06-21 13:45:00,
2013-06-21 08:46:00,79.1,72.4,29.78,SSW,205,10.0,14.0,80,0.00,,,0.00,322,Wunderground v.1.15,2013-06-21 13:46:00,
2013-06-21 08:48:00,79.2,72.5,29.78,SSW,209,8.0,14.0,80,0.00,,,0.00,336,Wunderground v.1.15,2013-06-21 13:48:00,
2013-06-21 08:52:00,79.6,72.5,29.78,SSW,198,12.0,12.0,79,0.00,,,0.00,318,Wunderground v.1.15,2013-06-21 13:52:00,
2013-06-21 08:53:00,79.6,72.5,29.78,SSW,194,8.0,12.0,79,0.00,,,0.00,322,Wunderground v.1.15,2013-06-21 13:53:00,
2013-06-21 08:55:00,79.6,72.5,29.78,SSW,213,10.0,15.0,79,0.00,,,0.00,318,Wunderground v.1.15,2013-06-21 13:55:00,
2013-06-21 08:57:00,79.6,72.5,29.78,SSW,195,13.0,15.0,79,0.00,,,0.00,329,Wunderground v.1.15,2013-06-21 13:57:00,
2013-06-21 08:58:00,79.7,72.6,29.78,SSW,194,8.0,16.0,79,0.00,,,0.00,322,Wunderground v.1.15,2013-06-21 13:58:00,
2013-06-21 09:00:00,79.7,72.6,29.78,SW,216,11.0,11.0,79,0.00,,,0.00,332,Wunderground v.1.15,2013-06-21 14:00:00,
2013-06-21 09:03:00,79.8,72.3,29.78,SSW,202,7.0,15.0,78,0.00,,,0.00,316,Wunderground v.1.15,2013-06-21 14:03:00,
2013-06-21 09:04:00,79.8,72.3,29.79,South,191,16.0,16.0,78,0.00,,,0.00,316,Wunderground v.1.15,2013-06-21 14:04:00,
2013-06-21 09:05:00,79.8,72.3,29.79,SSW,206,10.0,16.0,78,0.00,,,0.00,322,Wunderground v.1.15,2013-06-21 14:05:00,
2013-06-21 09:09:00,79.8,72.7,29.79,SSW,202,10.0,16.0,79,0.00,,,0.00,306,Wunderground v.1.15,2013-06-21 14:09:00,
2013-06-21 09:10:00,79.8,72.3,29.79,SE,146,10.0,12.0,78,0.00,,,0.00,302,Wunderground v.1.15,2013-06-21 14:10:00,
2013-06-21 09:11:00,79.9,72.4,29.79,SSW,213,9.0,12.0,78,0.00,,,0.00,302,Wunderground v.1.15,2013-06-21 14:11:00,
2013-06-21 09:13:00,79.9,72.4,29.79,South,173,12.0,14.0,78,0.00,,,0.00,311,Wunderground v.1.15,2013-06-21 14:13:00,
2013-06-21 09:15:00,79.9,72.4,29.79,South,178,9.0,14.0,78,0.00,,,0.00,306,Wunderground v.1.15,2013-06-21 14:15:00,
2013-06-21 09:16:00,80.0,72.5,29.79,South,186,9.0,14.0,78,0.00,,,0.00,306,Wunderground v.1.15,2013-06-21 14:16:00,
2013-06-21 09:17:00,80.1,72.6,29.79,SSW,195,7.0,16.0,78,0.00,,,0.00,315,Wunderground v.1.15,2013-06-21 14:17:00,
2013-06-21 09:20:00,80.2,72.3,29.79,South,189,12.0,12.0,77,0.00,,,0.00,332,Wunderground v.1.15,2013-06-21 14:20:00,
2013-06-21 09:22:00,80.2,72.7,29.79,SSW,192,8.0,12.0,78,0.00,,,0.00,320,Wunderground v.1.15,2013-06-21 14:22:00,
2013-06-21 09:23:00,80.2,72.7,29.79,South,181,9.0,12.0,78,0.00,,,0.00,329,Wunderground v.1.15,2013-06-21 14:23:00,
2013-06-21 09:25:00,80.3,72.4,29.79,SSW,211,9.0,15.0,77,0.00,,,0.00,336,Wunderground v.1.15,2013-06-21 14:25:00,
2013-06-21 09:27:00,80.3,72.8,29.79,SSW,202,9.0,15.0,78,0.00,,,0.00,345,Wunderground v.1.15,2013-06-21 14:27:00,
2013-06-21 09:28:00,80.3,72.4,29.79,SSW,207,8.0,15.0,77,0.00,,,0.00,364,Wunderground v.1.15,2013-06-21 14:28:00,
2013-06-21 09:29:00,80.4,72.5,29.80,SSW,198,7.0,15.0,77,0.00,,,0.00,383,Wunderground v.1.15,2013-06-21 14:29:00,
2013-06-21 09:32:00,80.6,72.7,29.80,SW,219,7.0,11.0,77,0.00,,,0.00,390,Wunderground v.1.15,2013-06-21 14:32:00,
2013-06-21 09:33:00,80.6,72.7,29.80,SSW,212,7.0,12.0,77,0.00,,,0.00,397,Wunderground v.1.15,2013-06-21 14:33:00,
2013-06-21 09:34:00,80.6,72.7,29.80,SSW,211,10.0,12.0,77,0.00,,,0.00,397,Wunderground v.1.15,2013-06-21 14:34:00,
2013-06-21 09:37:00,80.9,73.0,29.80,South,184,7.0,12.0,77,0.00,,,0.00,415,Wunderground v.1.15,2013-06-21 14:37:00,
2013-06-21 09:39:00,81.1,73.2,29.80,SW,226,7.0,12.0,77,0.00,,,0.00,401,Wunderground v.1.15,2013-06-21 14:39:00,
2013-06-21 09:40:00,81.2,72.9,29.81,South,187,11.0,11.0,76,0.00,,,0.00,397,Wunderground v.1.15,2013-06-21 14:40:00,
2013-06-21 09:43:00,81.2,72.9,29.81,SSW,213,7.0,14.0,76,0.00,,,0.00,403,Wunderground v.1.15,2013-06-21 14:43:00,
2013-06-21 09:44:00,81.3,73.0,29.81,SSW,204,8.0,14.0,76,0.00,,,0.00,411,Wunderground v.1.15,2013-06-21 14:44:00,
2013-06-21 09:46:00,81.3,73.0,29.81,South,190,9.0,14.0,76,0.00,,,0.00,448,Wunderground v.1.15,2013-06-21 14:46:00,
2013-06-21 09:49:00,81.6,72.9,29.81,SSW,196,8.0,14.0,75,0.00,,,0.00,482,Wunderground v.1.15,2013-06-21 14:49:00,
2013-06-21 09:51:00,81.8,73.1,29.81,South,190,5.0,13.0,75,0.00,,,0.00,496,Wunderground v.1.15,2013-06-21 14:51:00,
2013-06-21 09:52:00,81.8,73.1,29.81,SSW,209,7.0,13.0,75,0.00,,,0.00,468,Wunderground v.1.15,2013-06-21 14:52:00,
2013-06-21 09:54:00,81.9,73.2,29.82,SSW,211,6.0,13.0,75,0.00,,,0.00,320,Wunderground v.1.15,2013-06-21 14:54:00,
2013-06-21 09:57:00,81.9,72.8,29.82,SSW,207,8.0,15.0,74,0.00,,,0.00,253,Wunderground v.1.15,2013-06-21 14:57:00,
2013-06-21 09:59:00,81.7,72.6,29.82,SSW,202,9.0,15.0,74,0.00,,,0.00,230,Wunderground v.1.15,2013-06-21 14:59:00,
2013-06-21 10:00:00,81.5,72.8,29.82,South,190,5.0,8.0,75,0.00,,,0.00,220,Wunderground v.1.15,2013-06-21 15:00:00,
2013-06-21 10:03:00,81.2,72.5,29.82,SSW,201,6.0,11.0,75,0.00,,,0.00,221,Wunderground v.1.15,2013-06-21 15:03:00,
2013-06-21 10:04:00,81.2,72.5,29.82,SW,215,5.0,11.0,75,0.00,,,0.00,221,Wunderground v.1.15,2013-06-21 15:04:00,
2013-06-21 10:05:00,81.2,72.5,29.82,SSW,213,7.0,11.0,75,0.00,,,0.00,241,Wunderground v.1.15,2013-06-21 15:05:00,
2013-06-21 10:07:00,81.2,72.9,29.82,SSW,196,6.0,11.0,76,0.00,,,0.00,223,Wunderground v.1.15,2013-06-21 15:07:00,
2013-06-21 10:10:00,81.2,72.5,29.83,SSW,199,5.0,7.0,75,0.00,,,0.00,218,Wunderground v.1.15,2013-06-21 15:10:00,
2013-06-21 10:12:00,81.2,72.9,29.83,SSE,165,4.0,7.0,76,0.00,,,0.00,216,Wunderground v.1.15,2013-06-21 15:12:00,
2013-06-21 10:13:00,81.2,72.5,29.83,South,175,3.0,7.0,75,0.00,,,0.00,202,Wunderground v.1.15,2013-06-21 15:13:00,
2013-06-21 10:15:00,81.2,72.9,29.83,South,182,1.0,7.0,76,0.00,,,0.00,178,Wunderground v.1.15,2013-06-21 15:15:00,
2013-06-21 10:18:00,81.2,72.9,29.83,South,174,0.0,7.0,76,0.00,,,0.00,183,Wunderground v.1.15,2013-06-21 15:18:00,
2013-06-21 10:19:00,81.2,72.9,29.84,South,171,1.0,7.0,76,0.00,,,0.00,181,Wunderground v.1.15,2013-06-21 15:19:00,
2013-06-21 10:20:00,81.1,72.8,29.84,South,169,2.0,3.0,76,0.00,,,0.00,167,Wunderground v.1.15,2013-06-21 15:20:00,
2013-06-21 10:23:00,81.1,73.2,29.84,SSE,157,0.0,3.0,77,0.00,,,0.00,153,Wunderground v.1.15,2013-06-21 15:23:00,
2013-06-21 10:25:00,81.0,73.1,29.85,SE,137,2.0,3.0,77,0.00,,,0.00,144,Wunderground v.1.15,2013-06-21 15:25:00,
2013-06-21 10:29:00,80.9,72.6,29.85,ESE,118,1.0,4.0,76,0.00,,,0.00,72,Wunderground v.1.15,2013-06-21 15:29:00,
2013-06-21 10:31:00,80.8,72.5,29.85,ESE,105,2.0,2.0,76,0.00,,,0.00,56,Wunderground v.1.15,2013-06-21 15:31:00,
2013-06-21 10:34:00,80.4,72.9,29.85,ESE,105,1.0,2.0,78,0.00,,,0.00,40,Wunderground v.1.15,2013-06-21 15:34:00,
2013-06-21 10:36:00,80.2,72.7,29.85,ESE,103,2.0,2.0,78,0.00,,,0.00,30,Wunderground v.1.15,2013-06-21 15:36:00,
2013-06-21 10:37:00,80.0,72.9,29.85,ESE,103,3.0,3.0,79,0.00,,,0.00,28,Wunderground v.1.15,2013-06-21 15:37:00,
2013-06-21 10:38:00,79.9,72.8,29.85,ESE,103,1.0,3.0,79,0.00,,,0.00,26,Wunderground v.1.15,2013-06-21 15:38:00,
2013-06-21 10:39:00,79.7,72.6,29.85,ESE,103,1.0,3.0,79,0.00,,,0.00,28,Wunderground v.1.15,2013-06-21 15:39:00,
2013-06-21 10:41:00,79.5,72.8,29.85,ESE,103,0.0,2.0,80,0.00,,,0.00,30,Wunderground v.1.15,2013-06-21 15:41:00,
2013-06-21 10:43:00,79.4,72.7,29.85,ESE,103,0.0,2.0,80,0.00,,,0.00,35,Wunderground v.1.15,2013-06-21 15:43:00,
2013-06-21 10:44:00,79.3,73.0,29.85,ESE,103,0.0,2.0,81,0.00,,,0.00,37,Wunderground v.1.15,2013-06-21 15:44:00,
2013-06-21 10:45:00,79.3,73.0,29.85,ESE,103,0.0,2.0,81,0.00,,,0.00,37,Wunderground v.1.15,2013-06-21 15:45:00,
2013-06-21 10:48:00,79.1,72.8,29.85,ESE,103,2.0,3.0,81,0.00,,,0.00,53,Wunderground v.1.15,2013-06-21 15:48:00,
2013-06-21 10:49:00,79.1,72.8,29.85,ESE,121,3.0,3.0,81,0.00,,,0.00,70,Wunderground v.1.15,2013-06-21 15:49:00,
2013-06-21 10:50:00,79.1,72.8,29.85,ESE,121,2.0,3.0,81,0.00,,,0.00,81,Wunderground v.1.15,2013-06-21 15:50:00,
2013-06-21 10:51:00,79.1,72.8,29.85,ESE,114,5.0,5.0,81,0.00,,,0.00,93,Wunderground v.1.15,2013-06-21 15:51:00,
2013-06-21 10:55:00,79.4,73.1,29.84,SE,145,3.0,7.0,81,0.00,,,0.00,158,Wunderground v.1.15,2013-06-21 15:55:00,
2013-06-21 10:56:00,79.5,73.2,29.85,SE,142,5.0,7.0,81,0.00,,,0.00,148,Wunderground v.1.15,2013-06-21 15:56:00,
2013-06-21 10:57:00,79.5,73.2,29.85,SE,140,6.0,7.0,81,0.00,,,0.00,142,Wunderground v.1.15,2013-06-21 15:57:00,
2013-06-21 11:00:00,79.7,73.0,29.84,ESE,112,4.0,8.0,80,0.00,,,0.00,132,Wunderground v.1.15,2013-06-21 16:00:00,
2013-06-21 11:02:00,79.8,73.1,29.84,ESE,120,3.0,8.0,80,0.00,,,0.00,123,Wunderground v.1.15,2013-06-21 16:02:00,
2013-06-21 11:03:00,79.8,73.1,29.84,ESE,117,3.0,8.0,80,0.00,,,0.00,120,Wunderground v.1.15,2013-06-21 16:03:00,
2013-06-21 11:06:00,79.7,73.0,29.84,ESE,109,3.0,8.0,80,0.00,,,0.00,132,Wunderground v.1.15,2013-06-21 16:06:00,
2013-06-21 11:08:00,79.5,72.8,29.84,SE,134,5.0,8.0,80,0.00,,,0.00,132,Wunderground v.1.15,2013-06-21 16:08:00,
2013-06-21 11:09:00,79.5,72.8,29.84,SE,130,5.0,8.0,80,0.00,,,0.00,132,Wunderground v.1.15,2013-06-21 16:09:00,
2013-06-21 11:11:00,79.5,72.8,29.84,SE,126,7.0,7.0,80,0.00,,,0.00,132,Wunderground v.1.15,2013-06-21 16:11:00,
2013-06-21 11:12:00,79.5,72.8,29.84,SE,141,3.0,7.0,80,0.00,,,0.00,132,Wunderground v.1.15,2013-06-21 16:12:00,
2013-06-21 11:14:00,79.5,72.8,29.84,SSE,149,3.0,8.0,80,0.00,,,0.00,125,Wunderground v.1.15,2013-06-21 16:14:00,
2013-06-21 11:16:00,79.6,72.9,29.83,SSE,152,6.0,8.0,80,0.00,,,0.00,113,Wunderground v.1.15,2013-06-21 16:16:00,
2013-06-21 11:17:00,79.6,72.9,29.83,SE,144,4.0,8.0,80,0.00,,,0.00,104,Wunderground v.1.15,2013-06-21 16:17:00,
2013-06-21 11:20:00,79.6,72.9,29.84,SE,138,8.0,8.0,80,0.00,,,0.00,91,Wunderground v.1.15,2013-06-21 16:20:00,
2013-06-21 11:21:00,79.6,72.9,29.84,SE,140,5.0,9.0,80,0.00,,,0.00,90,Wunderground v.1.15,2013-06-21 16:21:00,
2013-06-21 11:22:00,79.6,72.9,29.83,ESE,115,8.0,9.0,80,0.00,,,0.00,88,Wunderground v.1.15,2013-06-21 16:22:00,
2013-06-21 11:23:00,79.6,72.9,29.83,ESE,106,9.0,10.0,80,0.00,,,0.00,88,Wunderground v.1.15,2013-06-21 16:23:00,
2013-06-21 11:26:00,79.5,72.8,29.83,ESE,113,5.0,10.0,80,0.00,,,0.00,90,Wunderground v.1.15,2013-06-21 16:26:00,
2013-06-21 11:27:00,79.4,72.7,29.84,ESE,103,4.0,10.0,80,0.00,,,0.00,95,Wunderground v.1.15,2013-06-21 16:27:00,
2013-06-21 11:28:00,79.4,72.7,29.84,ESE,120,4.0,10.0,80,0.00,,,0.00,95,Wunderground v.1.15,2013-06-21 16:28:00,
2013-06-21 11:29:00,79.4,72.7,29.84,ESE,112,4.0,10.0,80,0.00,,,0.00,102,Wunderground v.1.15,2013-06-21 16:29:00,
2013-06-21 11:31:00,79.3,72.6,29.84,ESE,105,3.0,7.0,80,0.00,,,0.00,113,Wunderground v.1.15,2013-06-21 16:31:00,
2013-06-21 11:32:00,79.3,72.6,29.83,East,96,2.0,7.0,80,0.00,,,0.00,125,Wunderground v.1.15,2013-06-21 16:32:00,
2013-06-21 11:33:00,79.3,72.6,29.83,East,96,5.0,7.0,80,0.00,,,0.00,125,Wunderground v.1.15,2013-06-21 16:33:00,
2013-06-21 11:35:00,79.3,73.0,29.83,ESE,106,1.0,7.0,81,0.00,,,0.00,142,Wunderground v.1.15,2013-06-21 16:35:00,
2013-06-21 11:39:00,79.1,73.1,29.83,East,98,2.0,7.0,82,0.00,,,0.00,213,Wunderground v.1.15,2013-06-21 16:39:00,
2013-06-21 11:40:00,79.1,73.5,29.83,ESE,109,4.0,4.0,83,0.00,,,0.00,225,Wunderground v.1.15,2013-06-21 16:40:00,
2013-06-21 11:42:00,79.1,73.1,29.84,SE,130,4.0,5.0,82,0.00,,,0.00,246,Wunderground v.1.15,2013-06-21 16:42:00,
2013-06-21 11:44:00,79.2,73.2,29.83,SE,129,6.0,7.0,82,0.00,,,0.00,264,Wunderground v.1.15,2013-06-21 16:44:00,
2013-06-21 11:45:00,79.3,73.7,29.83,ESE,120,5.0,7.0,83,0.00,,,0.00,283,Wunderground v.1.15,2013-06-21 16:45:00,
2013-06-21 11:46:00,79.4,73.4,29.83,ESE,116,4.0,7.0,82,0.00,,,0.00,309,Wunderground v.1.15,2013-06-21 16:46:00,
2013-06-21 11:47:00,79.4,73.4,29.83,SE,129,3.0,7.0,82,0.00,,,0.00,309,Wunderground v.1.15,2013-06-21 16:47:00,
2013-06-21 11:50:00,79.6,73.6,29.83,ESE,118,3.0,5.0,82,0.00,,,0.00,322,Wunderground v.1.15,2013-06-21 16:50:00,
2013-06-21 11:51:00,79.6,73.6,29.83,ESE,113,8.0,8.0,82,0.00,,,0.00,322,Wunderground v.1.15,2013-06-21 16:51:00,
2013-06-21 11:52:00,79.6,73.6,29.83,ESE,114,4.0,8.0,82,0.00,,,0.00,323,Wunderground v.1.15,2013-06-21 16:52:00,
2013-06-21 11:53:00,79.7,73.7,29.83,ESE,116,2.0,8.0,82,0.00,,,0.00,325,Wunderground v.1.15,2013-06-21 16:53:00,
2013-06-21 11:56:00,79.8,73.8,29.83,ESE,111,4.0,8.0,82,0.00,,,0.00,336,Wunderground v.1.15,2013-06-21 16:56:00,
2013-06-21 11:57:00,79.9,73.9,29.83,ESE,104,4.0,8.0,82,0.00,,,0.00,339,Wunderground v.1.15,2013-06-21 16:57:00,
2013-06-21 11:59:00,79.9,73.5,29.83,ESE,112,4.0,8.0,81,0.00,,,0.00,346,Wunderground v.1.15,2013-06-21 16:59:00,
2013-06-21 12:02:00,80.1,74.5,29.83,ESE,116,3.0,5.0,83,0.00,,,0.00,355,Wunderground v.1.15,2013-06-21 17:02:00,
2013-06-21 12:04:00,80.2,73.8,29.83,ESE,106,8.0,8.0,81,0.00,,,0.00,360,Wunderground v.1.15,2013-06-21 17:04:00,
2013-06-21 12:06:00,80.3,73.9,29.83,ESE,120,7.0,9.0,81,0.00,,,0.00,367,Wunderground v.1.15,2013-06-21 17:06:00,
2013-06-21 12:08:00,80.3,73.9,29.83,SE,140,4.0,9.0,81,0.00,,,0.00,374,Wunderground v.1.15,2013-06-21 17:08:00,
2013-06-21 12:10:00,80.4,74.0,29.83,SE,135,7.0,7.0,81,0.00,,,0.00,399,Wunderground v.1.15,2013-06-21 17:10:00,
2013-06-21 12:12:00,80.5,74.1,29.83,SE,127,7.0,8.0,81,0.00,,,0.00,434,Wunderground v.1.15,2013-06-21 17:12:00,
2013-06-21 12:15:00,80.6,74.2,29.83,ESE,109,8.0,9.0,81,0.00,,,0.00,508,Wunderground v.1.15,2013-06-21 17:15:00,
2013-06-21 12:16:00,80.6,74.2,29.83,ESE,110,7.0,9.0,81,0.00,,,0.00,508,Wunderground v.1.15,2013-06-21 17:16:00,
2013-06-21 12:17:00,80.7,74.3,29.83,ESE,109,14.0,14.0,81,0.00,,,0.00,547,Wunderground v.1.15,2013-06-21 17:17:00,
2013-06-21 12:19:00,80.8,74.0,29.83,East,99,7.0,14.0,80,0.00,,,0.00,606,Wunderground v.1.15,2013-06-21 17:19:00,
2013-06-21 12:22:00,81.2,74.4,29.83,ESE,119,3.0,7.0,80,0.00,,,0.00,668,Wunderground v.1.15,2013-06-21 17:22:00,
2013-06-21 12:23:00,81.3,74.5,29.83,ESE,109,2.0,7.0,80,0.00,,,0.00,668,Wunderground v.1.15,2013-06-21 17:23:00,
2013-06-21 12:25:00,81.6,74.8,29.83,ESE,113,11.0,12.0,80,0.00,,,0.00,666,Wunderground v.1.15,2013-06-21 17:25:00,
2013-06-21 12:27:00,81.7,74.5,29.83,ESE,109,4.0,12.0,79,0.00,,,0.00,823,Wunderground v.1.15,2013-06-21 17:27:00,
2013-06-21 12:28:00,81.9,75.1,29.83,East,91,7.0,12.0,80,0.00,,,0.00,823,Wunderground v.1.15,2013-06-21 17:28:00,
2013-06-21 12:29:00,82.0,74.8,29.83,ESE,111,7.0,12.0,79,0.00,,,0.00,860,Wunderground v.1.15,2013-06-21 17:29:00,
2013-06-21 12:33:00,82.6,75.0,29.83,East,90,11.0,13.0,78,0.00,,,0.00,963,Wunderground v.1.15,2013-06-21 17:33:00,
2013-06-21 12:34:00,82.7,75.1,29.83,East,84,8.0,13.0,78,0.00,,,0.00,893,Wunderground v.1.15,2013-06-21 17:34:00,
2013-06-21 12:36:00,82.7,74.8,29.83,East,101,7.0,13.0,77,0.00,,,0.00,851,Wunderground v.1.15,2013-06-21 17:36:00,
2013-06-21 12:37:00,82.7,74.8,29.84,East,95,9.0,13.0,77,0.00,,,0.00,858,Wunderground v.1.15,2013-06-21 17:37:00,
2013-06-21 12:41:00,82.9,74.6,29.84,SE,132,8.0,11.0,76,0.00,,,0.00,842,Wunderground v.1.15,2013-06-21 17:41:00,
2013-06-21 12:42:00,83.0,75.0,29.84,SE,130,9.0,11.0,77,0.00,,,0.00,877,Wunderground v.1.15,2013-06-21 17:42:00,
2013-06-21 12:43:00,83.0,74.6,29.84,ESE,103,10.0,11.0,76,0.00,,,0.00,867,Wunderground v.1.15,2013-06-21 17:43:00,
2013-06-21 12:45:00,83.3,75.3,29.84,ENE,76,9.0,11.0,77,0.00,,,0.00,872,Wunderground v.1.15,2013-06-21 17:45:00,
2013-06-21 12:46:00,83.3,74.9,29.84,ESE,121,10.0,11.0,76,0.00,,,0.00,842,Wunderground v.1.15,2013-06-21 17:46:00,
2013-06-21 12:48:00,83.5,75.5,29.84,SSE,155,5.0,11.0,77,0.00,,,0.00,831,Wunderground v.1.15,2013-06-21 17:48:00,
2013-06-21 12:52:00,83.6,75.6,29.84,ESE,109,11.0,11.0,77,0.00,,,0.00,854,Wunderground v.1.15,2013-06-21 17:52:00,
2013-06-21 12:53:00,83.6,74.8,29.84,ESE,104,13.0,16.0,75,0.00,,,0.00,937,Wunderground v.1.15,2013-06-21 17:53:00,
2013-06-21 12:54:00,83.5,75.1,29.84,ESE,119,9.0,16.0,76,0.00,,,0.00,867,Wunderground v.1.15,2013-06-21 17:54:00,
2013-06-21 12:57:00,83.7,75.7,29.84,East,100,8.0,16.0,77,0.00,,,0.00,789,Wunderground v.1.15,2013-06-21 17:57:00,
2013-06-21 12:58:00,83.7,75.7,29.84,ESE,105,5.0,16.0,77,0.00,,,0.00,789,Wunderground v.1.15,2013-06-21 17:58:00,
2013-06-21 12:59:00,83.4,75.4,29.84,ESE,103,8.0,16.0,77,0.00,,,0.00,782,Wunderground v.1.15,2013-06-21 17:59:00,
2013-06-21 13:01:00,83.1,74.7,29.84,East,95,3.0,9.0,76,0.00,,,0.00,946,Wunderground v.1.15,2013-06-21 18:01:00,
2013-06-21 13:03:00,83.2,76.4,29.84,East,98,7.0,9.0,80,0.00,,,0.00,970,Wunderground v.1.15,2013-06-21 18:03:00,
2013-06-21 13:04:00,83.3,75.7,29.84,ENE,61,12.0,14.0,78,0.00,,,0.00,918,Wunderground v.1.15,2013-06-21 18:04:00,
2013-06-21 13:05:00,83.3,75.7,29.84,SE,132,10.0,14.0,78,0.00,,,0.00,918,Wunderground v.1.15,2013-06-21 18:05:00,
2013-06-21 13:09:00,83.1,75.5,29.84,ESE,115,10.0,14.0,78,0.00,,,0.00,847,Wunderground v.1.15,2013-06-21 18:09:00,
2013-06-21 13:11:00,82.9,75.3,29.84,ESE,111,11.0,11.0,78,0.00,,,0.00,926,Wunderground v.1.15,2013-06-21 18:11:00,
2013-06-21 13:12:00,82.9,75.3,29.84,ESE,119,9.0,11.0,78,0.00,,,0.00,898,Wunderground v.1.15,2013-06-21 18:12:00,
2013-06-21 13:13:00,82.9,74.9,29.85,ENE,78,8.0,11.0,77,0.00,,,0.00,816,Wunderground v.1.15,2013-06-21 18:13:00,
2013-06-21 13:14:00,82.9,74.9,29.85,ESE,108,10.0,11.0,77,0.00,,,0.00,816,Wunderground v.1.15,2013-06-21 18:14:00,
2013-06-21 13:17:00,82.8,74.1,29.85,East,98,10.0,14.0,75,0.00,,,0.00,800,Wunderground v.1.15,2013-06-21 18:17:00,
2013-06-21 13:19:00,82.7,74.4,29.85,East,86,8.0,14.0,76,0.00,,,0.00,837,Wunderground v.1.15,2013-06-21 18:19:00,
2013-06-21 13:22:00,83.0,74.3,29.85,ESE,107,7.0,11.0,75,0.00,,,0.00,657,Wunderground v.1.15,2013-06-21 18:22:00,
2013-06-21 13:23:00,83.0,74.6,29.85,ESE,116,8.0,11.0,76,0.00,,,0.00,601,Wunderground v.1.15,2013-06-21 18:23:00,
2013-06-21 13:24:00,82.9,74.6,29.85,SE,138,11.0,11.0,76,0.00,,,0.00,540,Wunderground v.1.15,2013-06-21 18:24:00,
2013-06-21 13:28:00,82.5,74.2,29.85,SE,126,14.0,14.0,76,0.00,,,0.00,508,Wunderground v.1.15,2013-06-21 18:28:00,
2013-06-21 13:29:00,82.5,74.2,29.85,ESE,123,14.0,14.0,76,0.00,,,0.00,508,Wunderground v.1.15,2013-06-21 18:29:00,
2013-06-21 13:30:00,82.4,73.7,29.85,SE,145,8.0,9.0,75,0.00,,,0.00,390,Wunderground v.1.15,2013-06-21 18:30:00,
2013-06-21 13:34:00,82.0,74.1,29.85,ESE,117,8.0,10.0,77,0.00,,,0.00,473,Wunderground v.1.15,2013-06-21 18:34:00,
2013-06-21 13:35:00,82.0,74.1,29.85,ESE,114,8.0,10.0,77,0.00,,,0.00,473,Wunderground v.1.15,2013-06-21 18:35:00,
2013-06-21 13:36:00,81.9,74.0,29.85,ESE,111,4.0,10.0,77,0.00,,,0.00,476,Wunderground v.1.15,2013-06-21 18:36:00,
2013-06-21 13:38:00,81.9,74.4,29.85,SE,126,4.0,10.0,78,0.00,,,0.00,461,Wunderground v.1.15,2013-06-21 18:38:00,
2013-06-21 13:41:00,81.9,74.0,29.85,ESE,108,13.0,13.0,77,0.00,,,0.00,355,Wunderground v.1.15,2013-06-21 18:41:00,
2013-06-21 13:42:00,81.9,74.0,29.85,ESE,112,10.0,13.0,77,0.00,,,0.00,348,Wunderground v.1.15,2013-06-21 18:42:00,
2013-06-21 13:45:00,81.7,73.8,29.85,ESE,121,5.0,13.0,77,0.00,,,0.00,338,Wunderground v.1.15,2013-06-21 18:45:00,
2013-06-21 13:47:00,81.6,73.7,29.85,East,95,10.0,13.0,77,0.00,,,0.00,352,Wunderground v.1.15,2013-06-21 18:47:00,
2013-06-21 13:48:00,81.6,73.7,29.85,ESE,113,8.0,13.0,77,0.00,,,0.00,352,Wunderground v.1.15,2013-06-21 18:48:00,
2013-06-21 13:49:00,81.5,73.6,29.85,SSE,159,10.0,13.0,77,0.00,,,0.00,371,Wunderground v.1.15,2013-06-21 18:49:00,
2013-06-21 13:51:00,81.4,73.5,29.85,ESE,121,11.0,15.0,77,0.00,,,0.00,334,Wunderground v.1.15,2013-06-21 18:51:00,
2013-06-21 13:52:00,81.3,73.4,29.85,ESE,121,8.0,15.0,77,0.00,,,0.00,346,Wunderground v.1.15,2013-06-21 18:52:00,
2013-06-21 13:55:00,81.2,73.7,29.85,SE,130,8.0,15.0,78,0.00,,,0.00,396,Wunderground v.1.15,2013-06-21 18:55:00,
2013-06-21 13:57:00,81.4,73.9,29.85,SE,126,7.0,15.0,78,0.00,,,0.00,461,Wunderground v.1.15,2013-06-21 18:57:00,
2013-06-21 14:01:00,81.7,74.2,29.85,SE,128,7.0,11.0,78,0.00,,,0.00,494,Wunderground v.1.15,2013-06-21 19:01:00,
2013-06-21 14:02:00,81.8,74.3,29.85,SE,124,14.0,14.0,78,0.00,,,0.00,487,Wunderground v.1.15,2013-06-21 19:02:00,
2013-06-21 14:05:00,81.7,73.8,29.85,ESE,105,8.0,14.0,77,0.00,,,0.00,323,Wunderground v.1.15,2013-06-21 19:05:00,
2013-06-21 14:06:00,81.7,73.8,29.84,ESE,110,12.0,14.0,77,0.00,,,0.00,287,Wunderground v.1.15,2013-06-21 19:06:00,
2013-06-21 14:08:00,81.6,73.7,29.84,ESE,119,9.0,16.0,77,0.00,,,0.00,278,Wunderground v.1.15,2013-06-21 19:08:00,
2013-06-21 14:09:00,81.4,73.5,29.83,ESE,123,9.0,16.0,77,0.00,,,0.00,265,Wunderground v.1.15,2013-06-21 19:09:00,
2013-06-21 14:11:00,81.3,73.4,29.83,SE,131,5.0,10.0,77,0.00,,,0.00,257,Wunderground v.1.15,2013-06-21 19:11:00,
2013-06-21 14:15:00,81.3,73.8,29.83,SE,128,7.0,10.0,78,0.00,,,0.00,234,Wunderground v.1.15,2013-06-21 19:15:00,
2013-06-21 14:16:00,81.2,73.7,29.83,SSE,154,10.0,11.0,78,0.00,,,0.00,227,Wunderground v.1.15,2013-06-21 19:16:00,
2013-06-21 14:17:00,81.2,73.7,29.84,SE,134,6.0,14.0,78,0.00,,,0.00,223,Wunderground v.1.15,2013-06-21 19:17:00,
2013-06-21 14:20:00,81.3,73.4,29.84,SE,126,14.0,14.0,77,0.00,,,0.00,206,Wunderground v.1.15,2013-06-21 19:20:00,
2013-06-21 14:21:00,81.2,73.7,29.83,ESE,106,10.0,14.0,78,0.00,,,0.00,199,Wunderground v.1.15,2013-06-21 19:21:00,
2013-06-21 14:22:00,81.2,73.3,29.83,SE,126,13.0,14.0,77,0.00,,,0.00,181,Wunderground v.1.15,2013-06-21 19:22:00,
2013-06-21 14:23:00,81.2,73.3,29.83,ESE,117,15.0,15.0,77,0.00,,,0.00,171,Wunderground v.1.15,2013-06-21 19:23:00,
2013-06-21 14:25:00,81.0,73.5,29.82,SE,134,13.0,15.0,78,0.00,,,0.00,160,Wunderground v.1.15,2013-06-21 19:25:00,
2013-06-21 14:26:00,80.9,73.4,29.82,SE,127,9.0,17.0,78,0.00,,,0.00,125,Wunderground v.1.15,2013-06-21 19:26:00,
2013-06-21 14:28:00,80.8,73.3,29.81,ESE,123,13.0,17.0,78,0.00,,,0.00,105,Wunderground v.1.15,2013-06-21 19:28:00,
2013-06-21 14:30:00,80.6,73.5,29.80,SE,128,14.0,14.0,79,0.00,,,0.00,93,Wunderground v.1.15,2013-06-21 19:30:00,
2013-06-21 14:32:00,80.4,73.3,29.79,ESE,110,9.0,14.0,79,0.00,,,0.00,90,Wunderground v.1.15,2013-06-21 19:32:00,
2013-06-21 14:35:00,79.8,73.4,29.78,ESE,107,10.0,14.0,81,0.00,,,0.00,84,Wunderground v.1.15,2013-06-21 19:35:00,
2013-06-21 14:37:00,79.5,73.2,29.77,ESE,119,9.0,14.0,81,0.00,,,0.00,88,Wunderground v.1.15,2013-06-21 19:37:00,
2013-06-21 14:39:00,79.2,73.2,29.77,East,88,9.0,14.0,82,0.00,,,0.00,93,Wunderground v.1.15,2013-06-21 19:39:00,
2013-06-21 14:41:00,78.8,72.8,29.76,East,88,2.0,11.0,82,0.00,,,0.00,98,Wunderground v.1.15,2013-06-21 19:41:00,
2013-06-21 14:42:00,78.5,72.5,29.76,SE,137,8.0,12.0,82,0.00,,,0.00,104,Wunderground v.1.15,2013-06-21 19:42:00,
2013-06-21 14:43:00,78.4,72.4,29.76,ESE,120,11.0,12.0,82,0.00,,,0.00,104,Wunderground v.1.15,2013-06-21 19:43:00,
2013-06-21 14:45:00,77.9,72.3,29.76,ESE,121,9.0,12.0,83,0.00,,,0.00,111,Wunderground v.1.15,2013-06-21 19:45:00,
2013-06-21 14:46:00,77.8,72.2,29.76,ESE,115,7.0,12.0,83,0.00,,,0.00,113,Wunderground v.1.15,2013-06-21 19:46:00,
2013-06-21 14:49:00,77.5,71.9,29.75,East,98,10.0,14.0,83,0.00,,,0.00,121,Wunderground v.1.15,2013-06-21 19:49:00,
2013-06-21 14:51:00,77.4,71.8,29.75,ENE,69,3.0,11.0,83,0.00,,,0.00,134,Wunderground v.1.15,2013-06-21 19:51:00,
2013-06-21 14:52:00,77.3,72.1,29.74,East,82,3.0,11.0,84,0.00,,,0.00,137,Wunderground v.1.15,2013-06-21 19:52:00,
2013-06-21 14:54:00,77.2,72.0,29.74,SE,144,10.0,11.0,84,0.00,,,0.00,155,Wunderground v.1.15,2013-06-21 19:54:00,
2013-06-21 14:55:00,77.1,71.9,29.74,ESE,108,14.0,14.0,84,0.00,,,0.00,162,Wunderground v.1.15,2013-06-21 19:55:00,
2013-06-21 14:56:00,77.1,71.9,29.74,SE,124,16.0,16.0,84,0.00,,,0.00,162,Wunderground v.1.15,2013-06-21 19:56:00,
2013-06-21 14:59:00,77.0,71.8,29.76,SSE,149,10.0,16.0,84,0.00,,,0.00,214,Wunderground v.1.15,2013-06-21 19:59:00,
2013-06-21 15:00:00,77.1,71.9,29.76,SE,145,10.0,16.0,84,0.00,,,0.00,214,Wunderground v.1.15,2013-06-21 20:00:00,
2013-06-21 15:01:00,77.1,71.9,29.76,SE,131,11.0,11.0,84,0.00,,,0.00,243,Wunderground v.1.15,2013-06-21 20:01:00,
2013-06-21 15:03:00,77.3,72.1,29.76,SE,132,4.0,14.0,84,0.00,,,0.00,267,Wunderground v.1.15,2013-06-21 20:03:00,
2013-06-21 15:05:00,77.3,72.1,29.76,SE,144,6.0,14.0,84,0.00,,,0.00,288,Wunderground v.1.15,2013-06-21 20:05:00,
2013-06-21 15:06:00,77.5,72.3,29.76,SE,132,16.0,16.0,84,0.00,,,0.00,308,Wunderground v.1.15,2013-06-21 20:06:00,
2013-06-21 15:08:00,77.5,71.9,29.75,ESE,121,17.0,17.0,83,0.00,,,0.00,318,Wunderground v.1.15,2013-06-21 20:08:00,
2013-06-21 15:10:00,77.6,72.0,29.75,ESE,103,12.0,12.0,83,0.00,,,0.00,373,Wunderground v.1.15,2013-06-21 20:10:00,
2013-06-21 15:11:00,77.7,72.1,29.75,ESE,109,10.0,15.0,83,0.00,,,0.00,383,Wunderground v.1.15,2013-06-21 20:11:00,
2013-06-21 15:13:00,77.8,72.2,29.75,SE,136,9.0,15.0,83,0.00,,,0.00,446,Wunderground v.1.15,2013-06-21 20:13:00,
2013-06-21 15:15:00,78.0,72.1,29.75,SE,128,9.0,16.0,82,0.00,,,0.00,480,Wunderground v.1.15,2013-06-21 20:15:00,
2013-06-21 15:16:00,78.1,72.2,29.75,ESE,121,10.0,16.0,82,0.00,,,0.00,504,Wunderground v.1.15,2013-06-21 20:16:00,
2013-06-21 15:17:00,78.2,72.3,29.75,SE,136,8.0,16.0,82,0.00,,,0.00,519,Wunderground v.1.15,2013-06-21 20:17:00,
2013-06-21 15:19:00,78.4,72.4,29.76,SSE,150,7.0,16.0,82,0.00,,,0.00,554,Wunderground v.1.15,2013-06-21 20:19:00,
2013-06-21 15:20:00,78.7,72.7,29.76,SE,144,7.0,12.0,82,0.00,,,0.00,517,Wunderground v.1.15,2013-06-21 20:20:00,
2013-06-21 15:21:00,78.8,73.2,29.76,SE,134,8.0,12.0,83,0.00,,,0.00,508,Wunderground v.1.15,2013-06-21 20:21:00,
2013-06-21 15:23:00,79.1,73.5,29.76,SE,146,11.0,12.0,83,0.00,,,0.00,573,Wunderground v.1.15,2013-06-21 20:23:00,
2013-06-21 15:24:00,79.3,73.3,29.76,ESE,121,12.0,12.0,82,0.00,,,0.00,649,Wunderground v.1.15,2013-06-21 20:24:00,
2013-06-21 15:27:00,79.5,73.2,29.76,SE,132,8.0,16.0,81,0.00,,,0.00,624,Wunderground v.1.15,2013-06-21 20:27:00,
2013-06-21 15:28:00,79.7,73.7,29.76,SE,131,7.0,16.0,82,0.00,,,0.00,624,Wunderground v.1.15,2013-06-21 20:28:00,
2013-06-21 15:29:00,79.8,73.4,29.76,SSE,163,12.0,16.0,81,0.00,,,0.00,457,Wunderground v.1.15,2013-06-21 20:29:00,
2013-06-21 15:31:00,80.0,73.6,29.76,SE,132,5.0,10.0,81,0.00,,,0.00,487,Wunderground v.1.15,2013-06-21 20:31:00,
2013-06-21 15:32:00,80.1,73.7,29.76,SE,129,11.0,12.0,81,0.00,,,0.00,464,Wunderground v.1.15,2013-06-21 20:32:00,
2013-06-21 15:33:00,80.2,73.5,29.76,SSE,148,8.0,12.0,80,0.00,,,0.00,464,Wunderground v.1.15,2013-06-21 20:33:00,
2013-06-21 15:37:00,80.5,73.8,29.76,SE,127,8.0,17.0,80,0.00,,,0.00,425,Wunderground v.1.15,2013-06-21 20:37:00,
2013-06-21 15:38:00,80.6,73.9,29.76,SE,138,7.0,17.0,80,0.00,,,0.00,422,Wunderground v.1.15,2013-06-21 20:38:00,
2013-06-21 15:40:00,80.9,73.8,29.76,SSE,161,7.0,12.0,79,0.00,,,0.00,503,Wunderground v.1.15,2013-06-21 20:40:00,
2013-06-21 15:41:00,81.1,74.0,29.76,South,171,12.0,18.0,79,0.00,,,0.00,482,Wunderground v.1.15,2013-06-21 20:41:00,
2013-06-21 15:43:00,81.3,73.8,29.75,South,173,11.0,18.0,78,0.00,,,0.00,441,Wunderground v.1.15,2013-06-21 20:43:00,
2013-06-21 15:47:00,81.6,73.7,29.75,SSE,160,13.0,18.0,77,0.00,,,0.00,522,Wunderground v.1.15,2013-06-21 20:47:00,
2013-06-21 15:48:00,81.7,74.2,29.75,SSE,155,12.0,18.0,78,0.00,,,0.00,445,Wunderground v.1.15,2013-06-21 20:48:00,
2013-06-21 15:49:00,81.8,74.3,29.75,SSE,162,6.0,18.0,78,0.00,,,0.00,445,Wunderground v.1.15,2013-06-21 20:49:00,
2013-06-21 15:53:00,82.0,74.1,29.75,SSE,153,15.0,15.0,77,0.00,,,0.00,404,Wunderground v.1.15,2013-06-21 20:53:00,
2013-06-21 15:54:00,81.9,74.0,29.75,SSE,155,11.0,15.0,77,0.00,,,0.00,557,Wunderground v.1.15,2013-06-21 20:54:00,
2013-06-21 15:55:00,81.9,74.0,29.75,SSE,155,16.0,16.0,77,0.00,,,0.00,541,Wunderground v.1.15,2013-06-21 20:55:00,
2013-06-21 15:58:00,82.5,74.9,29.75,South,178,12.0,17.0,78,0.00,,,0.00,803,Wunderground v.1.15,2013-06-21 20:58:00,
2013-06-21 15:59:00,82.7,74.8,29.75,SSE,163,9.0,17.0,77,0.00,,,0.00,803,Wunderground v.1.15,2013-06-21 20:59:00,
2013-06-21 16:00:00,82.8,74.8,29.75,South,175,10.0,13.0,77,0.00,,,0.00,803,Wunderground v.1.15,2013-06-21 21:00:00,
2013-06-21 16:01:00,83.1,75.1,29.75,SSE,148,10.0,13.0,77,0.00,,,0.00,543,Wunderground v.1.15,2013-06-21 21:01:00,
2013-06-21 16:03:00,83.5,75.1,29.75,SSE,165,14.0,14.0,76,0.00,,,0.00,668,Wunderground v.1.15,2013-06-21 21:03:00,
2013-06-21 16:05:00,83.7,74.9,29.75,SSE,156,14.0,17.0,75,0.00,,,0.00,712,Wunderground v.1.15,2013-06-21 21:05:00,
2013-06-21 16:07:00,83.9,75.1,29.74,SSE,161,11.0,17.0,75,0.00,,,0.00,788,Wunderground v.1.15,2013-06-21 21:07:00,
2013-06-21 16:09:00,84.3,75.5,29.74,SSE,158,11.0,17.0,75,0.00,,,0.00,807,Wunderground v.1.15,2013-06-21 21:09:00,
2013-06-21 16:10:00,84.5,75.3,29.75,SSE,154,11.0,13.0,74,0.00,,,0.00,724,Wunderground v.1.15,2013-06-21 21:10:00,
2013-06-21 16:12:00,84.9,75.7,29.75,South,172,12.0,14.0,74,0.00,,,0.00,392,Wunderground v.1.15,2013-06-21 21:12:00,
2013-06-21 16:13:00,84.9,75.7,29.75,South,185,11.0,14.0,74,0.00,,,0.00,353,Wunderground v.1.15,2013-06-21 21:13:00,
2013-06-21 16:14:00,85.0,75.8,29.74,SSE,161,13.0,14.0,74,0.00,,,0.00,353,Wunderground v.1.15,2013-06-21 21:14:00,
2013-06-21 16:17:00,85.7,76.0,29.74,South,173,12.0,14.0,73,0.00,,,0.00,705,Wunderground v.1.15,2013-06-21 21:17:00,
2013-06-21 16:18:00,86.0,75.9,29.74,SSE,161,8.0,14.0,72,0.00,,,0.00,710,Wunderground v.1.15,2013-06-21 21:18:00,
2013-06-21 16:19:00,86.2,76.1,29.74,SE,139,13.0,14.0,72,0.00,,,0.00,717,Wunderground v.1.15,2013-06-21 21:19:00,
2013-06-21 16:20:00,86.6,76.5,29.74,South,172,15.0,16.0,72,0.00,,,0.00,710,Wunderground v.1.15,2013-06-21 21:20:00,
2013-06-21 16:22:00,87.1,76.5,29.74,SSE,168,16.0,16.0,71,0.00,,,0.00,710,Wunderground v.1.15,2013-06-21 21:22:00,
2013-06-21 16:24:00,87.3,76.3,29.75,South,189,9.0,16.0,70,0.00,,,0.00,710,Wunderground v.1.15,2013-06-21 21:24:00,
2013-06-21 16:25:00,87.4,76.4,29.74,South,175,15.0,16.0,70,0.00,,,0.00,708,Wunderground v.1.15,2013-06-21 21:25:00,
2013-06-21 16:26:00,87.7,76.7,29.74,South,175,6.0,16.0,70,0.00,,,0.00,707,Wunderground v.1.15,2013-06-21 21:26:00,
2013-06-21 16:27:00,87.9,76.5,29.75,SW,214,11.0,16.0,69,0.00,,,0.00,701,Wunderground v.1.15,2013-06-21 21:27:00,
2013-06-21 16:28:00,88.1,76.6,29.74,SSE,160,10.0,16.0,69,0.00,,,0.00,700,Wunderground v.1.15,2013-06-21 21:28:00,
2013-06-21 16:30:00,88.3,76.4,29.75,SSW,192,15.0,15.0,68,0.00,,,0.00,694,Wunderground v.1.15,2013-06-21 21:30:00,
2013-06-21 16:32:00,88.3,76.4,29.74,SSW,198,7.0,15.0,68,0.00,,,0.00,679,Wunderground v.1.15,2013-06-21 21:32:00,
2013-06-21 16:33:00,88.7,77.2,29.74,South,179,13.0,15.0,69,0.00,,,0.00,677,Wunderground v.1.15,2013-06-21 21:33:00,
2013-06-21 16:35:00,89.1,76.3,29.75,SSE,150,17.0,18.0,66,0.00,,,0.00,671,Wunderground v.1.15,2013-06-21 21:35:00,
2013-06-21 16:37:00,89.3,75.5,29.74,SSE,159,16.0,22.0,64,0.00,,,0.00,670,Wunderground v.1.15,2013-06-21 21:37:00,
2013-06-21 16:38:00,89.2,75.4,29.75,South,177,15.0,22.0,64,0.00,,,0.00,668,Wunderground v.1.15,2013-06-21 21:38:00,
2013-06-21 16:40:00,89.3,75.5,29.74,South,190,9.0,13.0,64,0.00,,,0.00,664,Wunderground v.1.15,2013-06-21 21:40:00,
2013-06-21 16:42:00,89.5,75.7,29.74,South,188,18.0,18.0,64,0.00,,,0.00,657,Wunderground v.1.15,2013-06-21 21:42:00,
2013-06-21 16:43:00,89.5,75.2,29.75,South,169,15.0,18.0,63,0.00,,,0.00,652,Wunderground v.1.15,2013-06-21 21:43:00,
2013-06-21 16:44:00,89.7,75.4,29.74,SE,140,13.0,18.0,63,0.00,,,0.00,654,Wunderground v.1.15,2013-06-21 21:44:00,
2013-06-21 16:45:00,89.9,75.6,29.74,South,185,16.0,18.0,63,0.00,,,0.00,649,Wunderground v.1.15,2013-06-21 21:45:00,
2013-06-21 16:48:00,89.8,75.5,29.74,SSE,147,11.0,18.0,63,0.00,,,0.00,643,Wunderground v.1.15,2013-06-21 21:48:00,
2013-06-21 16:49:00,89.8,76.0,29.74,SSE,166,13.0,18.0,64,0.00,,,0.00,633,Wunderground v.1.15,2013-06-21 21:49:00,
2013-06-21 16:50:00,89.9,75.6,29.74,South,191,17.0,17.0,63,0.00,,,0.00,636,Wunderground v.1.15,2013-06-21 21:50:00,
2013-06-21 16:51:00,89.9,75.6,29.74,SE,139,15.0,17.0,63,0.00,,,0.00,636,Wunderground v.1.15,2013-06-21 21:51:00,
2013-06-21 16:54:00,90.1,75.3,29.74,South,178,8.0,17.0,62,0.00,,,0.00,628,Wunderground v.1.15,2013-06-21 21:54:00,
2013-06-21 16:56:00,90.2,75.4,29.74,SSE,164,12.0,17.0,62,0.00,,,0.00,622,Wunderground v.1.15,2013-06-21 21:56:00,
2013-06-21 16:57:00,90.2,75.4,29.74,South,179,11.0,19.0,62,0.00,,,0.00,619,Wunderground v.1.15,2013-06-21 21:57:00,
2013-06-21 16:58:00,90.2,75.9,29.74,South,179,19.0,19.0,63,0.00,,,0.00,619,Wunderground v.1.15,2013-06-21 21:58:00,
2013-06-21 17:00:00,90.2,74.4,29.74,South,178,12.0,17.0,60,0.00,,,0.00,610,Wunderground v.1.15,2013-06-21 22:00:00,
2013-06-21 17:02:00,90.2,74.4,29.74,SSW,192,14.0,19.0,60,0.00,,,0.00,603,Wunderground v.1.15,2013-06-21 22:02:00,
2013-06-21 17:03:00,90.2,74.4,29.74,SSW,200,10.0,19.0,60,0.00,,,0.00,598,Wunderground v.1.15,2013-06-21 22:03:00,
2013-06-21 17:04:00,90.2,74.9,29.74,SSE,163,12.0,19.0,61,0.00,,,0.00,598,Wunderground v.1.15,2013-06-21 22:04:00,
2013-06-21 17:07:00,90.4,75.6,29.74,SSW,200,11.0,19.0,62,0.00,,,0.00,592,Wunderground v.1.15,2013-06-21 22:07:00,
2013-06-21 17:08:00,90.4,75.1,29.74,South,170,12.0,19.0,61,0.00,,,0.00,591,Wunderground v.1.15,2013-06-21 22:08:00,
2013-06-21 17:09:00,90.4,75.1,29.74,SSW,195,13.0,19.0,61,0.00,,,0.00,591,Wunderground v.1.15,2013-06-21 22:09:00,
2013-06-21 17:12:00,90.4,75.1,29.74,SSE,161,16.0,16.0,61,0.00,,,0.00,584,Wunderground v.1.15,2013-06-21 22:12:00,
2013-06-21 17:13:00,90.3,75.0,29.73,SSE,164,10.0,16.0,61,0.00,,,0.00,578,Wunderground v.1.15,2013-06-21 22:13:00,
2013-06-21 17:14:00,90.3,75.0,29.73,SSE,165,12.0,16.0,61,0.00,,,0.00,578,Wunderground v.1.15,2013-06-21 22:14:00,
2013-06-21 17:15:00,90.4,74.6,29.73,SSE,151,14.0,16.0,60,0.00,,,0.00,577,Wunderground v.1.15,2013-06-21 22:15:00,
2013-06-21 17:17:00,90.2,74.4,29.73,South,171,9.0,16.0,60,0.00,,,0.00,568,Wunderground v.1.15,2013-06-21 22:17:00,
2013-06-21 17:18:00,90.2,74.4,29.73,SSE,154,10.0,16.0,60,0.00,,,0.00,564,Wunderground v.1.15,2013-06-21 22:18:00,
2013-06-21 17:19:00,90.2,74.4,29.73,South,176,7.0,16.0,60,0.00,,,0.00,564,Wunderground v.1.15,2013-06-21 22:19:00,
2013-06-21 17:21:00,90.2,74.4,29.73,South,180,13.0,13.0,60,0.00,,,0.00,557,Wunderground v.1.15,2013-06-21 22:21:00,
2013-06-21 17:22:00,90.2,74.4,29.73,SSE,167,7.0,13.0,60,0.00,,,0.00,550,Wunderground v.1.15,2013-06-21 22:22:00,
2013-06-21 17:23:00,90.3,75.0,29.73,South,190,16.0,16.0,61,0.00,,,0.00,550,Wunderground v.1.15,2013-06-21 22:23:00,
2013-06-21 17:25:00,90.4,74.1,29.73,South,182,14.0,16.0,59,0.00,,,0.00,543,Wunderground v.1.15,2013-06-21 22:25:00,
2013-06-21 17:27:00,90.4,74.1,29.74,SSE,167,12.0,16.0,59,0.00,,,0.00,540,Wunderground v.1.15,2013-06-21 22:27:00,
2013-06-21 17:28:00,90.5,74.7,29.73,SSE,164,15.0,16.0,60,0.00,,,0.00,534,Wunderground v.1.15,2013-06-21 22:28:00,
2013-06-21 17:30:00,90.5,74.7,29.73,South,188,12.0,13.0,60,0.00,,,0.00,527,Wunderground v.1.15,2013-06-21 22:30:00,
2013-06-21 17:32:00,90.6,74.8,29.74,SSW,192,9.0,14.0,60,0.00,,,0.00,524,Wunderground v.1.15,2013-06-21 22:32:00,
2013-06-21 17:34:00,90.5,75.2,29.74,South,171,13.0,16.0,61,0.00,,,0.00,515,Wunderground v.1.15,2013-06-21 22:34:00,
2013-06-21 17:35:00,90.5,75.2,29.74,South,189,11.0,16.0,61,0.00,,,0.00,513,Wunderground v.1.15,2013-06-21 22:35:00,
2013-06-21 17:36:00,90.5,74.7,29.74,South,177,4.0,16.0,60,0.00,,,0.00,510,Wunderground v.1.15,2013-06-21 22:36:00,
2013-06-21 17:39:00,90.7,75.4,29.73,SSE,161,13.0,16.0,61,0.00,,,0.00,504,Wunderground v.1.15,2013-06-21 22:39:00,
2013-06-21 17:41:00,90.6,74.8,29.73,SSE,164,13.0,13.0,60,0.00,,,0.00,492,Wunderground v.1.15,2013-06-21 22:41:00,
2013-06-21 17:43:00,90.5,74.7,29.73,South,181,10.0,15.0,60,0.00,,,0.00,478,Wunderground v.1.15,2013-06-21 22:43:00,
2013-06-21 17:44:00,90.4,75.1,29.74,SSE,163,9.0,15.0,61,0.00,,,0.00,473,Wunderground v.1.15,2013-06-21 22:44:00,
2013-06-21 17:47:00,90.2,75.4,29.73,SSW,200,9.0,17.0,62,0.00,,,0.00,459,Wunderground v.1.15,2013-06-21 22:47:00,
2013-06-21 17:49:00,90.2,75.4,29.73,SSW,195,20.0,20.0,62,0.00,,,0.00,464,Wunderground v.1.15,2013-06-21 22:49:00,
2013-06-21 17:50:00,90.0,75.7,29.74,SSE,163,12.0,12.0,63,0.00,,,0.00,464,Wunderground v.1.15,2013-06-21 22:50:00,
2013-06-21 17:54:00,89.8,76.0,29.74,South,175,16.0,16.0,64,0.00,,,0.00,454,Wunderground v.1.15,2013-06-21 22:54:00,
2013-06-21 17:56:00,89.7,76.4,29.74,SSE,167,12.0,16.0,65,0.00,,,0.00,427,Wunderground v.1.15,2013-06-21 22:56:00,
2013-06-21 17:59:00,89.7,75.9,29.74,SSW,200,17.0,17.0,64,0.00,,,0.00,399,Wunderground v.1.15,2013-06-21 22:59:00,
2013-06-21 18:00:00,89.7,75.9,29.74,South,183,7.0,13.0,64,0.00,,,0.00,425,Wunderground v.1.15,2013-06-21 23:00:00,
2013-06-21 18:02:00,89.7,75.9,29.74,South,173,9.0,13.0,64,0.00,,,0.00,369,Wunderground v.1.15,2013-06-21 23:02:00,
2013-06-21 18:03:00,89.7,75.4,29.74,SSE,163,12.0,13.0,63,0.00,,,0.00,315,Wunderground v.1.15,2013-06-21 23:03:00,
2013-06-21 18:06:00,89.4,75.1,29.74,South,187,12.0,19.0,63,0.00,,,0.00,313,Wunderground v.1.15,2013-06-21 23:06:00,
2013-06-21 18:07:00,89.3,75.0,29.74,South,175,11.0,19.0,63,0.00,,,0.00,281,Wunderground v.1.15,2013-06-21 23:07:00,
2013-06-21 18:08:00,89.1,74.9,29.74,South,180,11.0,19.0,63,0.00,,,0.00,309,Wunderground v.1.15,2013-06-21 23:08:00,
2013-06-21 18:11:00,88.9,75.1,29.75,SSW,198,12.0,18.0,64,0.00,,,0.00,264,Wunderground v.1.15,2013-06-21 23:11:00,
2013-06-21 18:12:00,88.9,75.1,29.75,South,179,12.0,18.0,64,0.00,,,0.00,297,Wunderground v.1.15,2013-06-21 23:12:00,
2013-06-21 18:13:00,88.8,75.0,29.75,South,188,10.0,18.0,64,0.00,,,0.00,255,Wunderground v.1.15,2013-06-21 23:13:00,
2013-06-21 18:14:00,88.8,75.0,29.75,South,178,12.0,18.0,64,0.00,,,0.00,255,Wunderground v.1.15,2013-06-21 23:14:00,
2013-06-21 18:17:00,89.0,75.2,29.75,SSW,198,8.0,18.0,64,0.00,,,0.00,429,Wunderground v.1.15,2013-06-21 23:17:00,
2013-06-21 18:18:00,89.0,75.2,29.75,South,185,8.0,18.0,64,0.00,,,0.00,424,Wunderground v.1.15,2013-06-21 23:18:00,
2013-06-21 18:20:00,89.1,75.3,29.75,South,169,9.0,11.0,64,0.00,,,0.00,304,Wunderground v.1.15,2013-06-21 23:20:00,
2013-06-21 18:22:00,88.9,74.7,29.75,South,170,4.0,16.0,63,0.00,,,0.00,234,Wunderground v.1.15,2013-06-21 23:22:00,
2013-06-21 18:23:00,88.7,75.0,29.75,SSE,166,6.0,16.0,64,0.00,,,0.00,272,Wunderground v.1.15,2013-06-21 23:23:00,
2013-06-21 18:26:00,88.5,74.8,29.75,South,169,4.0,16.0,64,0.00,,,0.00,276,Wunderground v.1.15,2013-06-21 23:26:00,
2013-06-21 18:27:00,88.5,75.2,29.75,South,182,8.0,16.0,65,0.00,,,0.00,294,Wunderground v.1.15,2013-06-21 23:27:00,
2013-06-21 18:28:00,88.5,75.2,29.75,South,183,7.0,16.0,65,0.00,,,0.00,355,Wunderground v.1.15,2013-06-21 23:28:00,
2013-06-21 18:29:00,88.6,75.3,29.75,South,181,5.0,16.0,65,0.00,,,0.00,380,Wunderground v.1.15,2013-06-21 23:29:00,
2013-06-21 18:30:00,88.6,75.3,29.75,South,178,19.0,19.0,65,0.00,,,0.00,385,Wunderground v.1.15,2013-06-21 23:30:00,
2013-06-21 18:31:00,88.7,75.4,29.75,SSE,161,8.0,19.0,65,0.00,,,0.00,345,Wunderground v.1.15,2013-06-21 23:31:00,
2013-06-21 18:34:00,88.7,75.0,29.75,South,185,8.0,19.0,64,0.00,,,0.00,257,Wunderground v.1.15,2013-06-21 23:34:00,
2013-06-21 18:35:00,88.6,74.9,29.75,SE,137,9.0,19.0,64,0.00,,,0.00,250,Wunderground v.1.15,2013-06-21 23:35:00,
2013-06-21 18:36:00,88.6,75.3,29.75,SSE,153,11.0,19.0,65,0.00,,,0.00,262,Wunderground v.1.15,2013-06-21 23:36:00,
2013-06-21 18:40:00,88.2,75.4,29.75,SSE,153,8.0,8.0,66,0.00,,,0.00,294,Wunderground v.1.15,2013-06-21 23:40:00,
2013-06-21 18:41:00,88.2,75.4,29.75,SSE,155,10.0,10.0,66,0.00,,,0.00,294,Wunderground v.1.15,2013-06-21 23:41:00,
2013-06-21 18:42:00,88.2,75.4,29.75,SE,142,4.0,10.0,66,0.00,,,0.00,292,Wunderground v.1.15,2013-06-21 23:42:00,
2013-06-21 18:43:00,88.2,75.4,29.75,SSE,147,7.0,10.0,66,0.00,,,0.00,288,Wunderground v.1.15,2013-06-21 23:43:00,
2013-06-21 18:46:00,88.0,75.2,29.76,SSE,147,6.0,11.0,66,0.00,,,0.00,274,Wunderground v.1.15,2013-06-21 23:46:00,
2013-06-21 18:47:00,88.0,75.2,29.76,South,171,5.0,11.0,66,0.00,,,0.00,274,Wunderground v.1.15,2013-06-21 23:47:00,
2013-06-21 18:48:00,88.0,75.2,29.76,South,175,11.0,11.0,66,0.00,,,0.00,269,Wunderground v.1.15,2013-06-21 23:48:00,
2013-06-21 18:49:00,87.9,75.6,29.76,SSE,164,8.0,11.0,67,0.00,,,0.00,267,Wunderground v.1.15,2013-06-21 23:49:00,
2013-06-21 18:52:00,87.9,75.6,29.76,SSE,159,7.0,9.0,67,0.00,,,0.00,221,Wunderground v.1.15,2013-06-21 23:52:00,
2013-06-21 18:53:00,87.9,75.6,29.76,SSE,161,4.0,9.0,67,0.00,,,0.00,221,Wunderground v.1.15,2013-06-21 23:53:00,
2013-06-21 18:56:00,87.7,75.4,29.76,SE,142,10.0,10.0,67,0.00,,,0.00,202,Wunderground v.1.15,2013-06-21 23:56:00,
2013-06-21 18:58:00,87.5,75.6,29.76,SSE,148,7.0,10.0,68,0.00,,,0.00,181,Wunderground v.1.15,2013-06-21 23:58:00,
2013-06-21 18:59:00,87.5,75.6,29.76,SSE,157,3.0,10.0,68,0.00,,,0.00,181,Wunderground v.1.15,2013-06-21 23:59:00,
2013-06-21 19:00:00,87.5,75.2,29.76,SE,144,2.0,9.0,67,0.00,,,0.00,171,Wunderground v.1.15,2013-06-22 00:00:00,
2013-06-21 19:04:00,87.2,75.3,29.76,SE,130,7.0,9.0,68,0.00,,,0.00,156,Wunderground v.1.15,2013-06-22 00:04:00,
2013-06-21 19:05:00,87.2,75.3,29.76,SSE,161,3.0,11.0,68,0.00,,,0.00,172,Wunderground v.1.15,2013-06-22 00:05:00,
2013-06-21 19:07:00,87.1,75.7,29.76,SSE,150,7.0,11.0,69,0.00,,,0.00,160,Wunderground v.1.15,2013-06-22 00:07:00,
2013-06-21 19:09:00,87.1,75.7,29.76,SE,143,8.0,11.0,69,0.00,,,0.00,160,Wunderground v.1.15,2013-06-22 00:09:00,
2013-06-21 19:10:00,87.1,75.7,29.76,South,173,9.0,9.0,69,0.00,,,0.00,171,Wunderground v.1.15,2013-06-22 00:10:00,
2013-06-21 19:11:00,87.1,75.7,29.76,SSE,149,8.0,9.0,69,0.00,,,0.00,171,Wunderground v.1.15,2013-06-22 00:11:00,
2013-06-21 19:12:00,87.0,75.6,29.76,SSE,147,5.0,9.0,69,0.00,,,0.00,178,Wunderground v.1.15,2013-06-22 00:12:00,
2013-06-21 19:15:00,87.1,75.7,29.76,SSE,161,9.0,10.0,69,0.00,,,0.00,174,Wunderground v.1.15,2013-06-22 00:15:00,
2013-06-21 19:17:00,87.1,75.7,29.76,SE,136,7.0,10.0,69,0.00,,,0.00,142,Wunderground v.1.15,2013-06-22 00:17:00,
2013-06-21 19:18:00,87.1,75.7,29.76,SSE,153,6.0,10.0,69,0.00,,,0.00,125,Wunderground v.1.15,2013-06-22 00:18:00,
2013-06-21 19:20:00,87.1,75.7,29.76,SSE,160,7.0,7.0,69,0.00,,,0.00,111,Wunderground v.1.15,2013-06-22 00:20:00,
2013-06-21 19:21:00,87.1,75.7,29.76,SSE,150,5.0,7.0,69,0.00,,,0.00,109,Wunderground v.1.15,2013-06-22 00:21:00,
2013-06-21 19:23:00,87.0,75.6,29.76,SSE,166,7.0,8.0,69,0.00,,,0.00,90,Wunderground v.1.15,2013-06-22 00:23:00,
2013-06-21 19:24:00,86.9,75.5,29.76,SSE,159,8.0,8.0,69,0.00,,,0.00,98,Wunderground v.1.15,2013-06-22 00:24:00,
2013-06-21 19:25:00,86.8,75.4,29.76,SSE,151,6.0,8.0,69,0.00,,,0.00,102,Wunderground v.1.15,2013-06-22 00:25:00,
2013-06-21 19:26:00,86.8,75.8,29.76,SSE,156,5.0,8.0,70,0.00,,,0.00,113,Wunderground v.1.15,2013-06-22 00:26:00,
2013-06-21 19:29:00,86.6,75.2,29.76,SE,142,7.0,11.0,69,0.00,,,0.00,116,Wunderground v.1.15,2013-06-22 00:29:00,
2013-06-21 19:31:00,86.6,75.2,29.76,SSE,160,8.0,10.0,69,0.00,,,0.00,118,Wunderground v.1.15,2013-06-22 00:31:00,
2013-06-21 19:34:00,86.6,75.2,29.76,SSE,156,7.0,10.0,69,0.00,,,0.00,109,Wunderground v.1.15,2013-06-22 00:34:00,
2013-06-21 19:37:00,86.6,75.2,29.76,SE,140,4.0,10.0,69,0.00,,,0.00,111,Wunderground v.1.15,2013-06-22 00:37:00,
2013-06-21 19:38:00,86.6,75.2,29.76,SE,141,6.0,11.0,69,0.00,,,0.00,98,Wunderground v.1.15,2013-06-22 00:38:00,
2013-06-21 19:39:00,86.5,75.1,29.76,South,173,8.0,11.0,69,0.00,,,0.00,114,Wunderground v.1.15,2013-06-22 00:39:00,
2013-06-21 19:42:00,86.5,75.1,29.76,SE,142,7.0,12.0,69,0.00,,,0.00,113,Wunderground v.1.15,2013-06-22 00:42:00,
2013-06-21 19:44:00,86.5,75.1,29.76,SSE,150,5.0,12.0,69,0.00,,,0.00,109,Wunderground v.1.15,2013-06-22 00:44:00,
2013-06-21 19:45:00,86.5,75.1,29.76,SSE,153,6.0,12.0,69,0.00,,,0.00,107,Wunderground v.1.15,2013-06-22 00:45:00,
2013-06-21 19:46:00,86.5,75.1,29.76,SSE,161,8.0,12.0,69,0.00,,,0.00,104,Wunderground v.1.15,2013-06-22 00:46:00,
2013-06-21 19:48:00,86.4,75.5,29.76,SSE,153,6.0,12.0,70,0.00,,,0.00,98,Wunderground v.1.15,2013-06-22 00:48:00,
2013-06-21 19:49:00,86.3,74.9,29.76,SSE,148,4.0,12.0,69,0.00,,,0.00,98,Wunderground v.1.15,2013-06-22 00:49:00,
2013-06-21 19:51:00,86.3,75.4,29.76,SSE,148,7.0,7.0,70,0.00,,,0.00,95,Wunderground v.1.15,2013-06-22 00:51:00,
2013-06-21 19:52:00,86.3,74.9,29.76,SSE,148,3.0,9.0,69,0.00,,,0.00,93,Wunderground v.1.15,2013-06-22 00:52:00,
2013-06-21 19:54:00,86.3,75.4,29.76,SSE,161,6.0,9.0,70,0.00,,,0.00,91,Wunderground v.1.15,2013-06-22 00:54:00,
2013-06-21 19:55:00,86.3,75.4,29.76,SSE,148,2.0,9.0,70,0.00,,,0.00,90,Wunderground v.1.15,2013-06-22 00:55:00,
2013-06-21 19:57:00,86.1,75.2,29.76,SSE,157,2.0,9.0,70,0.00,,,0.00,84,Wunderground v.1.15,2013-06-22 00:57:00,
2013-06-21 20:01:00,86.0,75.1,29.76,SE,145,7.0,7.0,70,0.00,,,0.00,77,Wunderground v.1.15,2013-06-22 01:01:00,
2013-06-21 20:02:00,86.0,75.1,29.76,SSE,151,6.0,8.0,70,0.00,,,0.00,72,Wunderground v.1.15,2013-06-22 01:02:00,
2013-06-21 20:03:00,85.9,75.0,29.76,SSE,158,4.0,8.0,70,0.00,,,0.00,69,Wunderground v.1.15,2013-06-22 01:03:00,
2013-06-21 20:05:00,85.9,75.0,29.76,SSE,166,10.0,10.0,70,0.00,,,0.00,67,Wunderground v.1.15,2013-06-22 01:05:00,
2013-06-21 20:08:00,85.9,75.4,29.76,SSE,167,7.0,10.0,71,0.00,,,0.00,56,Wunderground v.1.15,2013-06-22 01:08:00,
2013-06-21 20:09:00,85.8,75.3,29.76,SSE,149,4.0,10.0,71,0.00,,,0.00,56,Wunderground v.1.15,2013-06-22 01:09:00,
2013-06-21 20:10:00,85.8,75.3,29.76,SSE,149,5.0,7.0,71,0.00,,,0.00,54,Wunderground v.1.15,2013-06-22 01:10:00,
2013-06-21 20:12:00,85.6,75.1,29.76,SE,144,5.0,7.0,71,0.00,,,0.00,53,Wunderground v.1.15,2013-06-22 01:12:00,
2013-06-21 20:13:00,85.6,75.5,29.76,SE,134,4.0,7.0,72,0.00,,,0.00,53,Wunderground v.1.15,2013-06-22 01:13:00,
2013-06-21 20:14:00,85.5,75.4,29.76,SSE,154,4.0,7.0,72,0.00,,,0.00,49,Wunderground v.1.15,2013-06-22 01:14:00,
2013-06-21 20:15:00,85.4,75.3,29.76,ESE,119,7.0,7.0,72,0.00,,,0.00,47,Wunderground v.1.15,2013-06-22 01:15:00,
2013-06-21 20:18:00,85.2,75.6,29.76,SE,145,7.0,7.0,73,0.00,,,0.00,42,Wunderground v.1.15,2013-06-22 01:18:00,
2013-06-21 20:20:00,85.1,75.5,29.76,SSE,165,5.0,8.0,73,0.00,,,0.00,40,Wunderground v.1.15,2013-06-22 01:20:00,
2013-06-21 20:21:00,85.1,75.5,29.76,SE,133,6.0,8.0,73,0.00,,,0.00,39,Wunderground v.1.15,2013-06-22 01:21:00,
2013-06-21 20:24:00,85.0,75.4,29.76,SSE,152,7.0,9.0,73,0.00,,,0.00,33,Wunderground v.1.15,2013-06-22 01:24:00,
2013-06-21 20:26:00,84.9,75.3,29.76,SE,146,5.0,9.0,73,0.00,,,0.00,30,Wunderground v.1.15,2013-06-22 01:26:00,
2013-06-21 20:29:00,84.8,75.6,29.76,SE,130,4.0,9.0,74,0.00,,,0.00,25,Wunderground v.1.15,2013-06-22 01:29:00,
2013-06-21 20:31:00,84.7,75.5,29.76,SE,142,7.0,7.0,74,0.00,,,0.00,23,Wunderground v.1.15,2013-06-22 01:31:00,
2013-06-21 20:32:00,84.6,75.4,29.76,SE,140,9.0,9.0,74,0.00,,,0.00,21,Wunderground v.1.15,2013-06-22 01:32:00,
2013-06-21 20:36:00,84.4,75.2,29.76,SE,137,4.0,9.0,74,0.00,,,0.00,16,Wunderground v.1.15,2013-06-22 01:36:00,
2013-06-21 20:38:00,84.3,75.5,29.76,SE,129,5.0,9.0,75,0.00,,,0.00,14,Wunderground v.1.15,2013-06-22 01:38:00,
2013-06-21 20:39:00,84.2,75.4,29.76,SE,144,4.0,9.0,75,0.00,,,0.00,14,Wunderground v.1.15,2013-06-22 01:39:00,
2013-06-21 20:41:00,84.1,75.3,29.76,SSE,148,4.0,7.0,75,0.00,,,0.00,11,Wunderground v.1.15,2013-06-22 01:41:00,
2013-06-21 20:42:00,84.1,75.3,29.76,SE,139,4.0,7.0,75,0.00,,,0.00,11,Wunderground v.1.15,2013-06-22 01:42:00,
2013-06-21 20:43:00,84.0,75.2,29.76,SSE,157,4.0,7.0,75,0.00,,,0.00,11,Wunderground v.1.15,2013-06-22 01:43:00,
2013-06-21 20:45:00,84.0,75.2,29.76,SE,140,6.0,7.0,75,0.00,,,0.00,9,Wunderground v.1.15,2013-06-22 01:45:00,
2013-06-21 20:47:00,83.9,75.1,29.76,SE,134,5.0,8.0,75,0.00,,,0.00,7,Wunderground v.1.15,2013-06-22 01:47:00,
2013-06-21 20:50:00,83.8,75.4,29.76,SSE,148,4.0,5.0,76,0.00,,,0.00,5,Wunderground v.1.15,2013-06-22 01:50:00,
2013-06-21 20:51:00,83.8,75.4,29.76,SSE,161,4.0,5.0,76,0.00,,,0.00,5,Wunderground v.1.15,2013-06-22 01:51:00,
2013-06-21 20:52:00,83.8,75.4,29.76,SSE,151,9.0,9.0,76,0.00,,,0.00,0,Wunderground v.1.15,2013-06-22 01:52:00,
2013-06-21 20:54:00,83.8,75.4,29.76,South,169,5.0,9.0,76,0.00,,,0.00,0,Wunderground v.1.15,2013-06-22 01:54:00,
2013-06-21 20:55:00,83.7,75.3,29.76,SE,128,7.0,9.0,76,0.00,,,0.00,0,Wunderground v.1.15,2013-06-22 01:55:00,
2013-06-21 20:57:00,83.8,75.4,29.76,SE,146,7.0,9.0,76,0.00,,,0.00,0,Wunderground v.1.15,2013-06-22 01:57:00,
2013-06-21 20:58:00,83.8,75.4,29.76,SSE,151,4.0,9.0,76,0.00,,,0.00,0,Wunderground v.1.15,2013-06-22 01:58:00,
2013-06-21 20:59:00,83.8,75.4,29.76,SSE,153,7.0,9.0,76,0.00,,,0.00,0,Wunderground v.1.15,2013-06-22 01:59:00,
2013-06-21 21:02:00,83.8,75.4,29.77,South,181,5.0,9.0,76,0.00,,,0.00,0,Wunderground v.1.15,2013-06-22 02:02:00,
2013-06-21 21:04:00,83.8,75.4,29.77,SSE,165,8.0,11.0,76,0.00,,,0.00,0,Wunderground v.1.15,2013-06-22 02:04:00,
2013-06-21 21:05:00,83.8,75.0,29.76,SE,146,7.0,11.0,75,0.00,,,0.00,0,Wunderground v.1.15,2013-06-22 02:05:00,
2013-06-21 21:06:00,83.9,75.1,29.76,South,170,9.0,11.0,75,0.00,,,0.00,0,Wunderground v.1.15,2013-06-22 02:06:00,
2013-06-21 21:07:00,83.9,75.1,29.76,SSE,150,9.0,11.0,75,0.00,,,0.00,0,Wunderground v.1.15,2013-06-22 02:07:00,
2013-06-21 21:10:00,83.9,75.1,29.76,South,177,4.0,7.0,75,0.00,,,0.00,0,Wunderground v.1.15,2013-06-22 02:10:00,
2013-06-21 21:11:00,83.8,75.0,29.76,SSE,165,6.0,9.0,75,0.00,,,0.00,0,Wunderground v.1.15,2013-06-22 02:11:00,
2013-06-21 21:13:00,83.8,75.4,29.76,SSE,160,4.0,10.0,76,0.00,,,0.00,0,Wunderground v.1.15,2013-06-22 02:13:00,
2013-06-21 21:16:00,83.7,75.3,29.76,SE,131,8.0,10.0,76,0.00,,,0.00,0,Wunderground v.1.15,2013-06-22 02:16:00,
2013-06-21 21:17:00,83.7,75.3,29.76,SSE,156,8.0,10.0,76,0.00,,,0.00,0,Wunderground v.1.15,2013-06-22 02:17:00,
2013-06-21 21:19:00,83.7,75.3,29.76,SE,124,7.0,10.0,76,0.00,,,0.00,0,Wunderground v.1.15,2013-06-22 02:19:00,
2013-06-21 21:22:00,83.6,75.2,29.76,SSE,160,7.0,9.0,76,0.00,,,0.00,0,Wunderground v.1.15,2013-06-22 02:22:00,
2013-06-21 21:23:00,83.5,75.1,29.76,SSE,156,6.0,9.0,76,0.00,,,0.00,0,Wunderground v.1.15,2013-06-22 02:23:00,
2013-06-21 21:27:00,83.4,75.0,29.76,SSE,165,8.0,10.0,76,0.00,,,0.00,0,Wunderground v.1.15,2013-06-22 02:27:00,
2013-06-21 21:28:00,83.4,75.0,29.76,South,169,8.0,10.0,76,0.00,,,0.00,0,Wunderground v.1.15,2013-06-22 02:28:00,
2013-06-21 21:29:00,83.4,75.0,29.76,SSE,161,6.0,10.0,76,0.00,,,0.00,0,Wunderground v.1.15,2013-06-22 02:29:00,
2013-06-21 21:30:00,83.3,74.9,29.76,SSE,160,5.0,7.0,76,0.00,,,0.00,0,Wunderground v.1.15,2013-06-22 02:30:00,
2013-06-21 21:33:00,83.2,75.2,29.77,SSE,165,8.0,8.0,77,0.00,,,0.00,0,Wunderground v.1.15,2013-06-22 02:33:00,
2013-06-21 21:34:00,83.1,75.1,29.77,SSE,163,7.0,8.0,77,0.00,,,0.00,0,Wunderground v.1.15,2013-06-22 02:34:00,
2013-06-21 21:35:00,83.0,75.0,29.77,South,173,7.0,8.0,77,0.00,,,0.00,0,Wunderground v.1.15,2013-06-22 02:35:00,
2013-06-21 21:36:00,83.0,75.0,29.77,South,169,6.0,8.0,77,0.00,,,0.00,0,Wunderground v.1.15,2013-06-22 02:36:00,
2013-06-21 21:39:00,82.9,74.9,29.77,SSE,163,4.0,8.0,77,0.00,,,0.00,0,Wunderground v.1.15,2013-06-22 02:39:00,
2013-06-21 21:40:00,82.8,74.8,29.77,South,170,5.0,6.0,77,0.00,,,0.00,0,Wunderground v.1.15,2013-06-22 02:40:00,
2013-06-21 21:41:00,82.8,74.8,29.77,SSE,153,6.0,12.0,77,0.00,,,0.00,0,Wunderground v.1.15,2013-06-22 02:41:00,
2013-06-21 21:42:00,82.8,74.8,29.77,South,175,5.0,12.0,77,0.00,,,0.00,0,Wunderground v.1.15,2013-06-22 02:42:00,
2013-06-21 21:44:00,82.9,74.9,29.77,South,178,5.0,12.0,77,0.00,,,0.00,0,Wunderground v.1.15,2013-06-22 02:44:00,
2013-06-21 21:45:00,82.9,74.9,29.77,South,185,6.0,12.0,77,0.00,,,0.00,0,Wunderground v.1.15,2013-06-22 02:45:00,
2013-06-21 21:47:00,82.9,74.9,29.77,South,183,9.0,12.0,77,0.00,,,0.00,0,Wunderground v.1.15,2013-06-22 02:47:00,
2013-06-21 21:49:00,82.9,74.9,29.78,South,169,6.0,12.0,77,0.00,,,0.00,0,Wunderground v.1.15,2013-06-22 02:49:00,
2013-06-21 21:51:00,82.9,74.9,29.77,South,172,11.0,11.0,77,0.00,,,0.00,0,Wunderground v.1.15,2013-06-22 02:51:00,
2013-06-21 21:53:00,82.9,74.9,29.78,SSE,163,11.0,11.0,77,0.00,,,0.00,0,Wunderground v.1.15,2013-06-22 02:53:00,
2013-06-21 21:54:00,83.0,75.0,29.78,South,173,7.0,11.0,77,0.00,,,0.00,0,Wunderground v.1.15,2013-06-22 02:54:00,
2013-06-21 21:55:00,83.0,75.0,29.78,SSE,155,5.0,11.0,77,0.00,,,0.00,0,Wunderground v.1.15,2013-06-22 02:55:00,
2013-06-21 21:56:00,83.0,74.6,29.78,SSE,163,8.0,11.0,76,0.00,,,0.00,0,Wunderground v.1.15,2013-06-22 02:56:00,
2013-06-21 21:58:00,83.0,74.6,29.78,SSE,158,8.0,11.0,76,0.00,,,0.00,0,Wunderground v.1.15,2013-06-22 02:58:00,
2013-06-21 22:00:00,83.0,74.6,29.78,SSE,157,6.0,8.0,76,0.00,,,0.00,0,Wunderground v.1.15,2013-06-22 03:00:00,
2013-06-21 22:01:00,83.0,74.6,29.78,SSE,165,11.0,11.0,76,0.00,,,0.00,0,Wunderground v.1.15,2013-06-22 03:01:00,
2013-06-21 22:02:00,83.0,74.6,29.78,South,186,4.0,11.0,76,0.00,,,0.00,0,Wunderground v.1.15,2013-06-22 03:02:00,
2013-06-21 22:03:00,83.0,74.6,29.78,SSE,161,8.0,11.0,76,0.00,,,0.00,0,Wunderground v.1.15,2013-06-22 03:03:00,
2013-06-21 22:05:00,82.9,74.6,29.78,SSE,152,6.0,11.0,76,0.00,,,0.00,0,Wunderground v.1.15,2013-06-22 03:05:00,
2013-06-21 22:06:00,82.9,74.6,29.78,South,171,7.0,11.0,76,0.00,,,0.00,0,Wunderground v.1.15,2013-06-22 03:06:00,
2013-06-21 22:07:00,82.9,74.6,29.78,SSE,151,9.0,11.0,76,0.00,,,0.00,0,Wunderground v.1.15,2013-06-22 03:07:00,
2013-06-21 22:10:00,82.8,74.5,29.79,SSE,163,8.0,8.0,76,0.00,,,0.00,0,Wunderground v.1.15,2013-06-22 03:10:00,
2013-06-21 22:11:00,82.8,74.5,29.79,South,176,9.0,9.0,76,0.00,,,0.00,0,Wunderground v.1.15,2013-06-22 03:11:00,
2013-06-21 22:12:00,82.8,74.5,29.79,South,171,4.0,9.0,76,0.00,,,0.00,0,Wunderground v.1.15,2013-06-22 03:12:00,
2013-06-21 22:16:00,82.6,74.3,29.79,SSE,160,3.0,9.0,76,0.00,,,0.00,0,Wunderground v.1.15,2013-06-22 03:16:00,
2013-06-21 22:17:00,82.5,74.2,29.79,SE,146,4.0,9.0,76,0.00,,,0.00,0,Wunderground v.1.15,2013-06-22 03:17:00,
2013-06-21 22:18:00,82.5,74.2,29.79,SSE,164,6.0,9.0,76,0.00,,,0.00,0,Wunderground v.1.15,2013-06-22 03:18:00,
2013-06-21 22:19:00,82.5,74.2,29.79,SSE,160,4.0,9.0,76,0.00,,,0.00,0,Wunderground v.1.15,2013-06-22 03:19:00,
2013-06-21 22:23:00,82.3,74.4,29.79,SSE,157,6.0,8.0,77,0.00,,,0.00,0,Wunderground v.1.15,2013-06-22 03:23:00,
2013-06-21 22:24:00,82.3,74.4,29.79,SSE,152,4.0,8.0,77,0.00,,,0.00,0,Wunderground v.1.15,2013-06-22 03:24:00,
2013-06-21 22:25:00,82.3,74.4,29.79,SSE,152,7.0,8.0,77,0.00,,,0.00,0,Wunderground v.1.15,2013-06-22 03:25:00,
2013-06-21 22:29:00,82.2,74.3,29.79,SSE,167,5.0,9.0,77,0.00,,,0.00,0,Wunderground v.1.15,2013-06-22 03:29:00,
2013-06-21 22:30:00,82.2,74.3,29.79,SSE,166,5.0,6.0,77,0.00,,,0.00,0,Wunderground v.1.15,2013-06-22 03:30:00,
2013-06-21 22:34:00,82.2,74.3,29.79,SSE,159,4.0,8.0,77,0.00,,,0.00,0,Wunderground v.1.15,2013-06-22 03:34:00,
2013-06-21 22:36:00,82.2,74.3,29.79,SSE,159,6.0,8.0,77,0.00,,,0.00,0,Wunderground v.1.15,2013-06-22 03:36:00,
2013-06-21 22:37:00,82.1,74.2,29.79,South,186,6.0,8.0,77,0.00,,,0.00,0,Wunderground v.1.15,2013-06-22 03:37:00,
2013-06-21 22:39:00,82.1,74.2,29.79,SSE,164,5.0,8.0,77,0.00,,,0.00,0,Wunderground v.1.15,2013-06-22 03:39:00,
2013-06-21 22:41:00,82.0,74.1,29.79,SSE,165,7.0,7.0,77,0.00,,,0.00,0,Wunderground v.1.15,2013-06-22 03:41:00,
2013-06-21 22:42:00,82.0,74.1,29.79,SE,137,7.0,8.0,77,0.00,,,0.00,0,Wunderground v.1.15,2013-06-22 03:42:00,
2013-06-21 22:44:00,82.0,74.1,29.79,SE,142,7.0,8.0,77,0.00,,,0.00,0,Wunderground v.1.15,2013-06-22 03:44:00,
2013-06-21 22:45:00,82.0,74.1,29.79,SSE,160,7.0,8.0,77,0.00,,,0.00,0,Wunderground v.1.15,2013-06-22 03:45:00,
2013-06-21 22:47:00,81.9,74.0,29.78,SSE,168,5.0,8.0,77,0.00,,,0.00,0,Wunderground v.1.15,2013-06-22 03:47:00,
2013-06-21 22:49:00,81.8,73.9,29.78,SSE,166,7.0,9.0,77,0.00,,,0.00,0,Wunderground v.1.15,2013-06-22 03:49:00,
2013-06-21 22:50:00,81.8,73.9,29.78,SE,146,6.0,6.0,77,0.00,,,0.00,0,Wunderground v.1.15,2013-06-22 03:50:00,
2013-06-21 22:53:00,81.8,73.9,29.78,SSE,159,7.0,8.0,77,0.00,,,0.00,0,Wunderground v.1.15,2013-06-22 03:53:00,
2013-06-21 22:55:00,81.7,73.8,29.78,SSE,157,7.0,10.0,77,0.00,,,0.00,0,Wunderground v.1.15,2013-06-22 03:55:00,
2013-06-21 22:58:00,81.8,73.9,29.78,SSE,153,8.0,12.0,77,0.00,,,0.00,0,Wunderground v.1.15,2013-06-22 03:58:00,
2013-06-21 22:59:00,81.7,73.8,29.78,South,186,6.0,12.0,77,0.00,,,0.00,0,Wunderground v.1.15,2013-06-22 03:59:00,
2013-06-21 23:01:00,81.7,73.8,29.78,SSE,148,7.0,8.0,77,0.00,,,0.00,0,Wunderground v.1.15,2013-06-22 04:01:00,
2013-06-21 23:06:00,81.5,73.6,29.78,SSE,158,9.0,11.0,77,0.00,,,0.00,0,Wunderground v.1.15,2013-06-22 04:06:00,
2013-06-21 23:07:00,81.5,73.6,29.78,SE,146,6.0,11.0,77,0.00,,,0.00,0,Wunderground v.1.15,2013-06-22 04:07:00,
2013-06-21 23:08:00,81.5,73.6,29.78,SSE,160,9.0,11.0,77,0.00,,,0.00,0,Wunderground v.1.15,2013-06-22 04:08:00,
2013-06-21 23:09:00,81.5,73.6,29.78,South,174,7.0,12.0,77,0.00,,,0.00,0,Wunderground v.1.15,2013-06-22 04:09:00,
2013-06-21 23:12:00,81.4,73.5,29.78,SSE,157,8.0,8.0,77,0.00,,,0.00,0,Wunderground v.1.15,2013-06-22 04:12:00,
2013-06-21 23:13:00,81.4,73.5,29.77,SE,146,5.0,11.0,77,0.00,,,0.00,0,Wunderground v.1.15,2013-06-22 04:13:00,
2013-06-21 23:14:00,81.4,73.5,29.77,SSE,163,7.0,11.0,77,0.00,,,0.00,0,Wunderground v.1.15,2013-06-22 04:14:00,
2013-06-21 23:15:00,81.3,73.4,29.77,SSE,159,7.0,11.0,77,0.00,,,0.00,0,Wunderground v.1.15,2013-06-22 04:15:00,
2013-06-21 23:17:00,81.3,73.4,29.77,South,178,9.0,11.0,77,0.00,,,0.00,0,Wunderground v.1.15,2013-06-22 04:17:00,
2013-06-21 23:19:00,81.3,73.4,29.77,South,174,6.0,11.0,77,0.00,,,0.00,0,Wunderground v.1.15,2013-06-22 04:19:00,
2013-06-21 23:20:00,81.3,73.4,29.77,SSE,149,7.0,7.0,77,0.00,,,0.00,0,Wunderground v.1.15,2013-06-22 04:20:00,
2013-06-21 23:22:00,81.2,73.3,29.77,SSE,164,9.0,11.0,77,0.00,,,0.00,0,Wunderground v.1.15,2013-06-22 04:22:00,
2013-06-21 23:23:00,81.2,73.3,29.77,SSE,158,4.0,11.0,77,0.00,,,0.00,0,Wunderground v.1.15,2013-06-22 04:23:00,
2013-06-21 23:24:00,81.1,73.2,29.77,SSE,157,8.0,11.0,77,0.00,,,0.00,0,Wunderground v.1.15,2013-06-22 04:24:00,
2013-06-21 23:26:00,81.1,73.2,29.77,SSE,162,8.0,12.0,77,0.00,,,0.00,0,Wunderground v.1.15,2013-06-22 04:26:00,
2013-06-21 23:28:00,81.1,73.2,29.77,SSE,148,9.0,13.0,77,0.00,,,0.00,0,Wunderground v.1.15,2013-06-22 04:28:00,
2013-06-21 23:30:00,81.0,73.1,29.77,South,171,9.0,9.0,77,0.00,,,0.00,0,Wunderground v.1.15,2013-06-22 04:30:00,
2013-06-21 23:31:00,81.0,73.1,29.77,SE,140,6.0,9.0,77,0.00,,,0.00,0,Wunderground v.1.15,2013-06-22 04:31:00,
2013-06-21 23:32:00,80.9,73.0,29.77,South,169,5.0,9.0,77,0.00,,,0.00,0,Wunderground v.1.15,2013-06-22 04:32:00,
2013-06-21 23:33:00,80.8,72.9,29.77,South,171,10.0,10.0,77,0.00,,,0.00,0,Wunderground v.1.15,2013-06-22 04:33:00,
2013-06-21 23:36:00,80.5,72.6,29.76,SSE,150,6.0,10.0,77,0.00,,,0.00,0,Wunderground v.1.15,2013-06-22 04:36:00,
2013-06-21 23:37:00,80.5,73.0,29.76,SSW,200,8.0,13.0,78,0.00,,,0.00,0,Wunderground v.1.15,2013-06-22 04:37:00,
2013-06-21 23:38:00,80.5,73.0,29.76,SSE,166,10.0,13.0,78,0.00,,,0.00,0,Wunderground v.1.15,2013-06-22 04:38:00,
2013-06-21 23:39:00,80.4,72.9,29.76,SSE,167,5.0,13.0,78,0.00,,,0.00,0,Wunderground v.1.15,2013-06-22 04:39:00,
2013-06-21 23:42:00,80.3,72.8,29.76,South,173,9.0,11.0,78,0.00,,,0.00,0,Wunderground v.1.15,2013-06-22 04:42:00,
2013-06-21 23:43:00,80.2,72.7,29.76,SSE,160,12.0,12.0,78,0.00,,,0.00,0,Wunderground v.1.15,2013-06-22 04:43:00,
2013-06-21 23:44:00,80.2,72.7,29.76,South,171,10.0,12.0,78,0.00,,,0.00,0,Wunderground v.1.15,2013-06-22 04:44:00,
2013-06-21 23:45:00,80.2,72.7,29.76,South,170,7.0,12.0,78,0.00,,,0.00,0,Wunderground v.1.15,2013-06-22 04:45:00,
2013-06-21 23:47:00,80.1,72.6,29.76,SSE,153,6.0,12.0,78,0.00,,,0.00,0,Wunderground v.1.15,2013-06-22 04:47:00,
2013-06-21 23:48:00,80.1,72.6,29.76,South,169,6.0,12.0,78,0.00,,,0.00,0,Wunderground v.1.15,2013-06-22 04:48:00,
2013-06-21 23:50:00,80.0,72.5,29.76,SSE,158,6.0,8.0,78,0.00,,,0.00,0,Wunderground v.1.15,2013-06-22 04:50:00,
2013-06-21 23:51:00,79.9,72.4,29.76,SSE,163,6.0,9.0,78,0.00,,,0.00,0,Wunderground v.1.15,2013-06-22 04:51:00,
2013-06-21 23:52:00,79.8,72.3,29.76,SE,132,10.0,10.0,78,0.00,,,0.00,0,Wunderground v.1.15,2013-06-22 04:52:00,
2013-06-21 23:55:00,79.7,72.2,29.76,SSE,163,7.0,12.0,78,0.00,,,0.00,0,Wunderground v.1.15,2013-06-22 04:55:00,
2013-06-21 23:56:00,79.7,72.2,29.76,SSE,149,7.0,12.0,78,0.00,,,0.00,0,Wunderground v.1.15,2013-06-22 04:56:00,
2013-06-21 23:57:00,79.7,72.2,29.76,SSE,155,10.0,12.0,78,0.00,,,0.00,0,Wunderground v.1.15,2013-06-22 04:57:00,
2013-06-21 23:59:00,79.7,72.2,29.76,SSE,156,9.0,12.0,78,0.00,,,0.00,0,Wunderground v.1.15,2013-06-22 04:59:00,